GFSGBSN_prec_precacc12_015.txt.gz
Total_Precipitation_Accumulation
0.02 0.03 0.03 0.02 0.02 0.03 0.03 0.02 0.01 0.00 0.00 0.00 0.00 0.00 0.00 0.00 0.00 0.00 0.00 0.00 0.00 0.00 0.01 0.01 0.02 0.03 0.03 0.04 0.02 0.00 0.00 0.00 0.00 0.00 0.00 0.00 0.02 0.02 0.02 0.00 0.01 0.00 0.00 0.00 0.00 0.00 0.00
0.02 0.03 0.02 0.02 0.02 0.02 0.02 0.03 0.02 0.01 0.01 0.00 0.00 0.00 0.00 0.00 0.00 0.00 0.00 0.00 0.00 0.00 0.01 0.03 0.06 0.05 0.02 0.02 0.00 0.00 0.00 0.00 0.00 0.00 0.01 0.01 0.01 0.01 0.01 0.00 0.02 0.00 0.00 0.00 0.00 0.00 0.00
0.05 0.04 0.03 0.02 0.02 0.01 0.02 0.02 0.03 0.02 0.01 0.01 0.01 0.00 0.00 0.00 0.00 0.00 0.00 0.00 0.00 0.00 0.01 0.06 0.12 0.05 0.04 0.00 0.00 0.00 0.00 0.00 0.00 0.00 0.00 0.00 0.02 0.11 0.06 0.05 0.00 0.01 0.01 0.00 0.00 0.00 0.00
0.05 0.05 0.05 0.03 0.03 0.02 0.02 0.02 0.01 0.01 0.00 0.01 0.00 0.01 0.01 0.01 0.01 0.00 0.01 0.01 0.01 0.02 0.03 0.05 0.03 0.06 0.05 0.00 0.00 0.00 0.00 0.00 0.00 0.00 0.00 0.00 0.02 0.08 0.08 0.07 0.04 0.04 0.06 0.02 0.00 0.00 0.00
0.05 0.07 0.09 0.08 0.04 0.03 0.03 0.03 0.03 0.02 0.01 0.01 0.00 0.01 0.01 0.02 0.02 0.02 0.02 0.04 0.04 0.06 0.12 0.03 0.01 0.05 0.02 0.00 0.00 0.00 0.00 0.00 0.00 0.00 0.00 0.00 0.04 0.12 0.10 0.12 0.13 0.10 0.03 0.01 0.00 0.00 0.00
0.06 0.06 0.06 0.05 0.04 0.03 0.03 0.03 0.03 0.03 0.02 0.02 0.01 0.01 0.02 0.02 0.02 0.03 0.04 0.09 0.14 0.14 0.10 0.04 0.02 0.03 0.00 0.00 0.00 0.00 0.00 0.00 0.02 0.07 0.06 0.04 0.10 0.16 0.13 0.17 0.11 0.03 0.02 0.00 0.00 0.00 0.00
0.06 0.05 0.05 0.04 0.04 0.05 0.03 0.03 0.03 0.03 0.02 0.02 0.03 0.02 0.01 0.02 0.03 0.04 0.03 0.23 0.18 0.12 0.08 0.01 0.01 0.00 0.00 0.00 0.00 0.00 0.00 0.00 0.01 0.11 0.08 0.05 0.13 0.14 0.09 0.04 0.03 0.02 0.05 0.02 0.00 0.00 0.01
0.06 0.06 0.05 0.05 0.09 0.10 0.08 0.04 0.03 0.02 0.02 0.02 0.02 0.01 0.01 0.02 0.04 0.07 0.15 0.19 0.06 0.04 0.12 0.04 0.00 0.00 0.00 0.00 0.02 0.01 0.00 0.00 0.01 0.12 0.09 0.15 0.13 0.03 0.09 0.05 0.05 0.06 0.06 0.03 0.01 0.02 0.03
0.08 0.09 0.10 0.17 0.13 0.12 0.12 0.08 0.04 0.03 0.03 0.03 0.02 0.01 0.01 0.01 0.03 0.08 0.14 0.15 0.11 0.14 0.46 0.24 0.04 0.03 0.01 0.02 0.01 0.06 0.00 0.00 0.02 0.12 0.18 0.18 0.10 0.04 0.14 0.12 0.08 0.07 0.07 0.04 0.03 0.04 0.04
0.10 0.14 0.20 0.18 0.17 0.18 0.18 0.14 0.08 0.07 0.06 0.05 0.04 0.02 0.01 0.01 0.03 0.07 0.19 0.22 0.21 0.40 1.04 0.23 0.03 0.07 0.08 0.15 0.10 0.01 0.00 0.02 0.05 0.11 0.16 0.16 0.13 0.17 0.16 0.25 0.09 0.06 0.03 0.04 0.07 0.15 0.05
0.25 0.31 0.21 0.14 0.15 0.21 0.20 0.17 0.12 0.10 0.10 0.07 0.05 0.02 0.02 0.01 0.03 0.07 0.10 0.19 0.27 0.64 0.71 0.04 0.02 0.02 0.02 0.12 0.10 0.01 0.01 0.11 0.13 0.13 0.34 0.30 0.19 0.25 0.17 0.28 0.09 0.09 0.02 0.04 0.07 0.20 0.30
0.37 0.25 0.20 0.22 0.21 0.16 0.18 0.23 0.19 0.14 0.14 0.10 0.06 0.03 0.01 0.03 0.02 0.06 0.18 0.22 0.35 0.58 0.27 0.05 0.05 0.04 0.07 0.06 0.09 0.13 0.04 0.08 0.20 0.32 0.28 0.16 0.16 0.25 0.13 0.17 0.16 0.09 0.12 0.11 0.18 0.23 0.40
0.24 0.26 0.28 0.30 0.27 0.25 0.21 0.18 0.16 0.17 0.14 0.13 0.14 0.16 0.07 0.01 0.02 0.04 0.23 0.30 0.47 0.29 0.08 0.21 0.15 0.17 0.10 0.05 0.07 0.15 0.13 0.12 0.52 0.53 0.43 0.54 0.49 0.46 0.16 0.32 0.49 0.34 0.39 0.54 0.52 0.57 0.30
0.29 0.29 0.28 0.34 0.36 0.35 0.33 0.30 0.30 0.21 0.15 0.14 0.13 0.24 0.19 0.04 0.06 0.06 0.23 0.31 0.30 0.08 0.12 0.19 0.16 0.21 0.26 0.09 0.10 0.10 0.25 0.12 0.30 0.17 0.29 0.55 0.48 0.47 0.26 0.41 0.75 0.55 0.44 0.56 0.31 0.28 0.13
0.32 0.36 0.39 0.38 0.38 0.40 0.38 0.35 0.26 0.21 0.13 0.19 0.21 0.26 0.26 0.10 0.14 0.14 0.32 0.39 0.13 0.14 0.17 0.18 0.22 0.22 0.23 0.09 0.09 0.11 0.14 0.10 0.10 0.10 0.33 0.40 0.49 0.31 0.18 0.22 0.46 0.51 0.48 0.37 0.30 0.06 0.13
0.33 0.36 0.48 0.48 0.50 0.49 0.34 0.33 0.34 0.26 0.19 0.26 0.22 0.25 0.22 0.08 0.23 0.30 0.45 0.32 0.13 0.23 0.30 0.17 0.11 0.04 0.03 0.02 0.08 0.05 0.05 0.01 0.01 0.02 0.19 0.33 0.56 0.53 0.47 0.37 0.54 0.47 0.28 0.39 0.58 0.20 0.09
0.39 0.35 0.37 0.60 0.66 0.54 0.34 0.29 0.31 0.29 0.25 0.26 0.14 0.19 0.17 0.14 0.45 0.49 0.37 0.26 0.15 0.18 0.22 0.18 0.04 0.03 0.01 0.00 0.07 0.01 0.02 0.01 0.01 0.01 0.13 0.44 0.59 0.61 0.79 0.53 0.47 0.52 0.42 0.33 0.41 0.21 0.05
0.34 0.37 0.41 0.52 0.63 0.53 0.43 0.31 0.26 0.34 0.44 0.29 0.14 0.15 0.13 0.26 0.44 0.24 0.14 0.30 0.28 0.18 0.16 0.14 0.04 0.01 0.00 0.00 0.03 0.02 0.01 0.02 0.01 0.03 0.16 0.38 0.49 0.62 0.48 0.17 0.08 0.19 0.22 0.09 0.42 0.24 0.05
0.28 0.31 0.42 0.49 0.59 0.47 0.44 0.42 0.28 0.35 0.54 0.19 0.12 0.23 0.56 0.22 0.20 0.09 0.13 0.41 0.33 0.14 0.12 0.13 0.02 0.00 0.00 0.00 0.00 0.00 0.00 0.00 0.00 0.01 0.14 0.26 0.50 0.53 0.48 0.14 0.20 0.29 0.25 0.11 0.23 0.27 0.03
0.28 0.35 0.47 0.45 0.44 0.41 0.44 0.40 0.38 0.38 0.34 0.09 0.07 0.21 0.62 0.54 0.09 0.12 0.37 0.50 0.45 0.14 0.09 0.11 0.02 0.00 0.00 0.00 0.00 0.00 0.00 0.00 0.00 0.01 0.13 0.44 0.31 0.49 0.36 0.13 0.09 0.12 0.16 0.19 0.20 0.12 0.01
0.28 0.35 0.37 0.38 0.35 0.40 0.46 0.50 0.78 0.58 0.18 0.09 0.06 0.08 0.09 0.13 0.04 0.03 0.41 0.52 0.63 0.43 0.22 0.13 0.05 0.00 0.00 0.00 0.00 0.00 0.00 0.00 0.00 0.00 0.09 0.29 0.44 0.60 0.27 0.05 0.01 0.02 0.09 0.09 0.05 0.01 0.01
0.24 0.27 0.26 0.33 0.35 0.42 0.42 0.63 0.81 0.73 0.25 0.13 0.05 0.04 0.05 0.02 0.01 0.01 0.24 0.50 0.68 0.61 0.44 0.19 0.06 0.00 0.00 0.00 0.00 0.00 0.00 0.00 0.00 0.00 0.00 0.04 0.16 0.21 0.10 0.01 0.03 0.02 0.03 0.00 0.00 0.00 0.00
0.18 0.26 0.28 0.27 0.32 0.35 0.29 0.41 0.51 0.59 0.34 0.12 0.04 0.01 0.02 0.05 0.04 0.02 0.07 0.28 0.48 0.55 0.38 0.21 0.07 0.03 0.01 0.00 0.00 0.00 0.00 0.00 0.00 0.00 0.00 0.01 0.04 0.06 0.02 0.01 0.00 0.00 0.00 0.00 0.00 0.00 0.00
0.16 0.24 0.32 0.31 0.27 0.31 0.26 0.38 0.52 0.62 0.33 0.05 0.01 0.02 0.04 0.02 0.03 0.02 0.00 0.17 0.34 0.28 0.36 0.19 0.10 0.04 0.01 0.03 0.01 0.02 0.03 0.00 0.01 0.02 0.00 0.00 0.01 0.01 0.00 0.01 0.00 0.00 0.00 0.00 0.00 0.00 0.00
0.18 0.24 0.29 0.34 0.25 0.29 0.33 0.36 0.41 0.19 0.16 0.03 0.00 0.03 0.06 0.03 0.00 0.01 0.00 0.18 0.23 0.17 0.34 0.27 0.09 0.02 0.02 0.01 0.06 0.07 0.13 0.10 0.02 0.01 0.00 0.01 0.08 0.07 0.00 0.01 0.00 0.00 0.00 0.00 0.00 0.00 0.00
0.16 0.21 0.25 0.31 0.32 0.27 0.30 0.21 0.22 0.14 0.16 0.07 0.00 0.02 0.06 0.03 0.01 0.00 0.00 0.10 0.27 0.16 0.21 0.19 0.08 0.04 0.11 0.02 0.05 0.06 0.07 0.10 0.03 0.03 0.03 0.02 0.07 0.16 0.03 0.00 0.00 0.00 0.00 0.00 0.00 0.00 0.00
0.13 0.17 0.22 0.27 0.28 0.22 0.23 0.26 0.24 0.11 0.10 0.09 0.01 0.01 0.12 0.06 0.01 0.00 0.00 0.04 0.27 0.18 0.16 0.16 0.08 0.08 0.15 0.10 0.06 0.05 0.03 0.00 0.00 0.00 0.02 0.06 0.07 0.12 0.08 0.02 0.00 0.00 0.00 0.00 0.00 0.00 0.00
0.11 0.14 0.23 0.29 0.26 0.22 0.21 0.23 0.21 0.13 0.14 0.11 0.00 0.00 0.06 0.05 0.00 0.00 0.00 0.01 0.17 0.30 0.17 0.15 0.16 0.15 0.20 0.16 0.08 0.04 0.01 0.00 0.00 0.00 0.00 0.01 0.02 0.02 0.06 0.04 0.00 0.00 0.00 0.00 0.00 0.00 0.00
0.12 0.15 0.19 0.25 0.26 0.23 0.20 0.22 0.20 0.11 0.13 0.10 0.01 0.01 0.08 0.05 0.01 0.00 0.00 0.00 0.07 0.23 0.23 0.12 0.14 0.06 0.07 0.11 0.04 0.02 0.00 0.00 0.00 0.00 0.00 0.00 0.00 0.00 0.00 0.00 0.00 0.00 0.00 0.00 0.00 0.00 0.00

GFSGBSN_prec_precacc12_018.txt.gz
Total_Precipitation_Accumulation
0.08 0.07 0.06 0.03 0.01 0.02 0.03 0.03 0.02 0.01 0.01 0.01 0.00 0.00 0.00 0.00 0.00 0.00 0.00 0.00 0.00 0.00 0.00 0.01 0.01 0.02 0.02 0.03 0.01 0.00 0.00 0.00 0.00 0.01 0.01 0.00 0.00 0.01 0.01 0.00 0.01 0.00 0.00 0.00 0.00 0.00 0.00
0.05 0.06 0.06 0.07 0.05 0.02 0.01 0.02 0.03 0.02 0.02 0.02 0.00 0.00 0.00 0.00 0.00 0.00 0.00 0.00 0.00 0.00 0.00 0.01 0.04 0.03 0.02 0.02 0.00 0.00 0.00 0.00 0.00 0.00 0.01 0.01 0.01 0.00 0.01 0.00 0.02 0.00 0.00 0.00 0.00 0.00 0.00
0.05 0.05 0.06 0.07 0.08 0.07 0.02 0.02 0.03 0.02 0.02 0.02 0.02 0.01 0.00 0.00 0.00 0.00 0.00 0.00 0.00 0.00 0.00 0.02 0.05 0.03 0.03 0.00 0.00 0.00 0.00 0.00 0.00 0.00 0.00 0.01 0.01 0.08 0.06 0.02 0.00 0.01 0.01 0.00 0.00 0.00 0.00
0.04 0.04 0.05 0.07 0.09 0.10 0.08 0.03 0.02 0.01 0.01 0.01 0.02 0.03 0.02 0.01 0.01 0.00 0.01 0.01 0.01 0.01 0.02 0.01 0.00 0.04 0.04 0.00 0.00 0.00 0.00 0.00 0.00 0.00 0.00 0.00 0.00 0.03 0.07 0.05 0.02 0.03 0.05 0.01 0.00 0.00 0.00
0.04 0.06 0.08 0.09 0.09 0.07 0.06 0.05 0.03 0.02 0.02 0.03 0.02 0.02 0.02 0.01 0.02 0.02 0.02 0.01 0.01 0.03 0.06 0.02 0.00 0.04 0.01 0.00 0.00 0.00 0.00 0.00 0.00 0.00 0.00 0.00 0.01 0.05 0.06 0.10 0.11 0.08 0.03 0.01 0.00 0.00 0.00
0.05 0.06 0.05 0.04 0.03 0.04 0.05 0.06 0.07 0.04 0.04 0.04 0.03 0.02 0.02 0.02 0.02 0.03 0.04 0.02 0.03 0.07 0.07 0.04 0.02 0.03 0.00 0.00 0.00 0.00 0.00 0.00 0.00 0.01 0.02 0.02 0.04 0.06 0.07 0.14 0.10 0.03 0.02 0.01 0.00 0.00 0.00
0.05 0.05 0.04 0.03 0.04 0.06 0.09 0.10 0.09 0.07 0.05 0.05 0.06 0.07 0.05 0.02 0.03 0.04 0.02 0.03 0.03 0.07 0.08 0.01 0.01 0.00 0.00 0.00 0.00 0.00 0.00 0.00 0.00 0.03 0.04 0.03 0.06 0.04 0.04 0.02 0.03 0.02 0.05 0.02 0.00 0.00 0.01
0.06 0.06 0.04 0.05 0.09 0.10 0.09 0.10 0.09 0.08 0.06 0.05 0.05 0.04 0.04 0.03 0.04 0.05 0.06 0.05 0.00 0.01 0.06 0.03 0.00 0.00 0.00 0.00 0.00 0.00 0.00 0.00 0.01 0.01 0.05 0.12 0.07 0.00 0.04 0.04 0.05 0.06 0.06 0.03 0.01 0.02 0.04
0.08 0.08 0.10 0.17 0.13 0.11 0.12 0.13 0.14 0.16 0.11 0.08 0.07 0.07 0.05 0.03 0.03 0.04 0.03 0.02 0.01 0.07 0.32 0.18 0.03 0.02 0.01 0.02 0.01 0.01 0.00 0.00 0.00 0.01 0.09 0.14 0.04 0.01 0.08 0.10 0.07 0.07 0.07 0.04 0.03 0.05 0.04
0.09 0.13 0.20 0.17 0.16 0.18 0.19 0.18 0.17 0.17 0.18 0.14 0.11 0.10 0.06 0.02 0.01 0.00 0.03 0.02 0.05 0.27 0.71 0.16 0.02 0.06 0.07 0.13 0.10 0.00 0.00 0.01 0.03 0.03 0.11 0.15 0.02 0.09 0.13 0.23 0.08 0.06 0.03 0.04 0.07 0.15 0.05
0.25 0.31 0.21 0.12 0.16 0.22 0.20 0.20 0.23 0.22 0.22 0.18 0.14 0.10 0.03 0.01 0.01 0.01 0.01 0.02 0.09 0.42 0.50 0.02 0.02 0.01 0.02 0.13 0.09 0.01 0.01 0.11 0.10 0.10 0.26 0.22 0.03 0.12 0.13 0.27 0.09 0.08 0.02 0.04 0.07 0.21 0.31
0.37 0.25 0.21 0.23 0.23 0.17 0.17 0.24 0.27 0.33 0.34 0.27 0.18 0.10 0.04 0.03 0.01 0.01 0.01 0.05 0.16 0.34 0.18 0.02 0.03 0.02 0.06 0.06 0.07 0.07 0.02 0.09 0.20 0.42 0.38 0.11 0.06 0.14 0.12 0.17 0.15 0.09 0.12 0.11 0.18 0.27 0.43
0.23 0.26 0.30 0.33 0.33 0.27 0.23 0.24 0.27 0.37 0.40 0.31 0.31 0.23 0.10 0.01 0.01 0.00 0.03 0.09 0.26 0.17 0.04 0.14 0.10 0.10 0.07 0.05 0.07 0.13 0.14 0.16 0.34 0.61 0.52 0.42 0.34 0.28 0.15 0.30 0.46 0.35 0.41 0.53 0.51 0.59 0.31
0.26 0.27 0.30 0.38 0.38 0.37 0.41 0.36 0.31 0.26 0.33 0.37 0.35 0.36 0.26 0.05 0.05 0.03 0.06 0.17 0.20 0.04 0.06 0.13 0.14 0.17 0.24 0.09 0.09 0.09 0.28 0.13 0.16 0.30 0.40 0.34 0.36 0.30 0.24 0.37 0.69 0.54 0.45 0.57 0.31 0.29 0.13
0.29 0.34 0.39 0.39 0.38 0.42 0.51 0.43 0.28 0.27 0.26 0.41 0.50 0.56 0.45 0.13 0.16 0.12 0.13 0.22 0.07 0.08 0.10 0.12 0.20 0.21 0.22 0.08 0.06 0.10 0.15 0.11 0.04 0.15 0.35 0.28 0.34 0.25 0.17 0.17 0.46 0.48 0.49 0.37 0.32 0.08 0.16
0.28 0.34 0.46 0.47 0.52 0.74 0.66 0.43 0.35 0.40 0.36 0.45 0.83 0.69 0.38 0.13 0.27 0.33 0.32 0.18 0.06 0.11 0.23 0.17 0.12 0.05 0.03 0.02 0.03 0.05 0.05 0.01 0.00 0.02 0.18 0.30 0.51 0.52 0.48 0.33 0.50 0.47 0.28 0.40 0.63 0.26 0.11
0.32 0.32 0.33 0.57 0.71 0.73 0.59 0.51 0.49 0.57 0.54 0.59 0.94 0.73 0.31 0.27 0.47 0.57 0.28 0.13 0.08 0.11 0.19 0.18 0.06 0.05 0.01 0.00 0.00 0.01 0.02 0.00 0.00 0.01 0.13 0.43 0.58 0.61 0.86 0.71 0.49 0.52 0.43 0.34 0.43 0.22 0.10
0.26 0.32 0.36 0.48 0.64 0.70 0.69 0.57 0.59 0.65 0.84 0.78 0.81 0.60 0.25 0.50 0.62 0.36 0.08 0.13 0.15 0.14 0.16 0.16 0.07 0.02 0.01 0.00 0.00 0.01 0.00 0.01 0.00 0.03 0.16 0.38 0.51 0.66 0.53 0.20 0.15 0.22 0.24 0.11 0.44 0.30 0.11
0.18 0.26 0.35 0.43 0.61 0.71 0.69 0.59 0.54 0.52 0.81 0.70 0.61 0.46 0.63 0.30 0.34 0.08 0.03 0.16 0.22 0.13 0.14 0.16 0.05 0.01 0.00 0.00 0.00 0.00 0.00 0.00 0.00 0.01 0.15 0.28 0.59 0.60 0.55 0.32 0.31 0.35 0.26 0.12 0.25 0.55 0.22
0.15 0.24 0.41 0.39 0.44 0.56 0.63 0.50 0.52 0.48 0.62 0.54 0.48 0.34 0.75 0.75 0.15 0.07 0.12 0.17 0.28 0.13 0.10 0.16 0.06 0.01 0.00 0.00 0.00 0.00 0.00 0.00 0.00 0.01 0.17 0.55 0.42 0.57 0.47 0.24 0.15 0.13 0.16 0.20 0.30 0.54 0.23
0.15 0.25 0.31 0.33 0.34 0.49 0.57 0.62 0.84 0.78 0.79 0.54 0.32 0.13 0.13 0.21 0.08 0.02 0.22 0.25 0.39 0.35 0.16 0.16 0.06 0.01 0.00 0.00 0.00 0.00 0.00 0.00 0.00 0.01 0.17 0.47 0.65 0.88 0.39 0.09 0.10 0.03 0.10 0.13 0.29 0.34 0.23
0.10 0.16 0.21 0.28 0.32 0.45 0.49 0.72 0.88 0.98 0.81 0.54 0.18 0.05 0.05 0.02 0.01 0.01 0.13 0.24 0.39 0.45 0.31 0.18 0.08 0.01 0.00 0.00 0.00 0.00 0.00 0.00 0.00 0.00 0.02 0.18 0.48 0.56 0.21 0.02 0.04 0.03 0.07 0.09 0.13 0.27 0.33
0.06 0.13 0.22 0.23 0.26 0.36 0.32 0.48 0.71 0.98 1.09 0.50 0.07 0.02 0.03 0.05 0.04 0.02 0.03 0.13 0.28 0.41 0.29 0.19 0.12 0.08 0.01 0.00 0.00 0.00 0.00 0.00 0.00 0.00 0.02 0.07 0.16 0.28 0.14 0.10 0.08 0.13 0.11 0.09 0.11 0.15 0.23
0.06 0.13 0.25 0.25 0.20 0.31 0.29 0.45 0.71 0.94 0.89 0.34 0.01 0.02 0.06 0.03 0.04 0.02 0.01 0.09 0.22 0.24 0.29 0.20 0.18 0.09 0.02 0.03 0.01 0.03 0.03 0.00 0.01 0.02 0.01 0.01 0.01 0.05 0.03 0.04 0.02 0.02 0.01 0.01 0.04 0.03 0.04
0.06 0.11 0.20 0.24 0.16 0.28 0.36 0.40 0.57 0.42 0.31 0.19 0.01 0.03 0.07 0.04 0.01 0.01 0.02 0.11 0.15 0.15 0.32 0.32 0.19 0.04 0.02 0.03 0.08 0.09 0.15 0.10 0.01 0.01 0.00 0.01 0.02 0.01 0.00 0.01 0.00 0.00 0.00 0.00 0.00 0.00 0.00
0.05 0.08 0.14 0.19 0.17 0.21 0.32 0.24 0.31 0.34 0.28 0.19 0.05 0.03 0.06 0.04 0.02 0.00 0.00 0.07 0.18 0.13 0.22 0.26 0.16 0.07 0.13 0.05 0.13 0.07 0.11 0.10 0.02 0.02 0.02 0.01 0.01 0.05 0.02 0.00 0.00 0.00 0.00 0.00 0.00 0.00 0.00
0.06 0.06 0.11 0.19 0.17 0.18 0.25 0.28 0.30 0.30 0.21 0.18 0.05 0.02 0.13 0.07 0.01 0.00 0.00 0.03 0.23 0.15 0.19 0.26 0.19 0.11 0.16 0.18 0.08 0.07 0.03 0.00 0.00 0.00 0.01 0.06 0.07 0.10 0.07 0.01 0.00 0.00 0.00 0.00 0.00 0.00 0.00
0.06 0.06 0.10 0.18 0.19 0.18 0.21 0.25 0.27 0.25 0.20 0.18 0.05 0.02 0.07 0.05 0.00 0.00 0.00 0.01 0.17 0.30 0.21 0.26 0.29 0.21 0.19 0.24 0.11 0.05 0.02 0.00 0.00 0.00 0.00 0.01 0.02 0.02 0.06 0.03 0.00 0.00 0.00 0.00 0.00 0.00 0.00
0.06 0.06 0.10 0.17 0.17 0.16 0.20 0.23 0.24 0.19 0.17 0.19 0.02 0.02 0.09 0.06 0.01 0.00 0.00 0.00 0.07 0.23 0.25 0.18 0.21 0.08 0.07 0.11 0.04 0.03 0.04 0.00 0.00 0.00 0.00 0.00 0.00 0.00 0.00 0.00 0.00 0.00 0.00 0.00 0.00 0.00 0.00

GFSGBSN_prec_precacc12_021.txt.gz
Total_Precipitation_Accumulation
0.08 0.08 0.08 0.07 0.06 0.08 0.06 0.04 0.03 0.02 0.02 0.03 0.03 0.01 0.00 0.00 0.00 0.00 0.00 0.00 0.00 0.00 0.00 0.00 0.01 0.01 0.00 0.00 0.00 0.00 0.00 0.00 0.00 0.01 0.01 0.01 0.00 0.00 0.00 0.00 0.00 0.00 0.00 0.00 0.00 0.00 0.00
0.05 0.05 0.06 0.06 0.08 0.08 0.09 0.08 0.05 0.03 0.03 0.03 0.04 0.02 0.00 0.00 0.00 0.00 0.00 0.00 0.00 0.00 0.00 0.00 0.00 0.02 0.01 0.01 0.00 0.00 0.00 0.00 0.00 0.00 0.00 0.02 0.01 0.00 0.00 0.00 0.01 0.00 0.00 0.00 0.00 0.00 0.00
0.05 0.05 0.05 0.06 0.08 0.09 0.11 0.11 0.11 0.05 0.03 0.03 0.04 0.04 0.01 0.00 0.00 0.00 0.00 0.00 0.00 0.00 0.00 0.00 0.00 0.02 0.02 0.00 0.00 0.00 0.00 0.00 0.00 0.00 0.00 0.01 0.01 0.05 0.04 0.01 0.00 0.01 0.01 0.00 0.00 0.00 0.00
0.04 0.04 0.05 0.07 0.08 0.09 0.10 0.10 0.10 0.08 0.03 0.02 0.03 0.05 0.05 0.02 0.00 0.00 0.01 0.01 0.02 0.01 0.01 0.01 0.00 0.01 0.02 0.00 0.00 0.00 0.00 0.00 0.00 0.00 0.00 0.00 0.01 0.03 0.03 0.02 0.01 0.02 0.03 0.01 0.00 0.00 0.00
0.03 0.06 0.08 0.09 0.08 0.06 0.06 0.07 0.07 0.09 0.08 0.06 0.05 0.05 0.05 0.04 0.02 0.02 0.02 0.03 0.02 0.02 0.04 0.02 0.00 0.01 0.01 0.00 0.00 0.00 0.00 0.00 0.00 0.00 0.00 0.00 0.00 0.01 0.01 0.05 0.06 0.04 0.02 0.00 0.00 0.00 0.00
0.05 0.05 0.04 0.04 0.03 0.03 0.04 0.05 0.08 0.10 0.11 0.10 0.07 0.06 0.06 0.04 0.03 0.02 0.05 0.05 0.03 0.01 0.04 0.04 0.02 0.02 0.00 0.00 0.00 0.00 0.00 0.00 0.00 0.00 0.00 0.00 0.00 0.02 0.01 0.06 0.05 0.01 0.01 0.00 0.00 0.00 0.00
0.05 0.04 0.03 0.03 0.04 0.06 0.09 0.09 0.09 0.09 0.10 0.13 0.12 0.12 0.13 0.08 0.03 0.03 0.03 0.02 0.00 0.01 0.05 0.01 0.01 0.00 0.00 0.00 0.00 0.00 0.00 0.00 0.00 0.00 0.00 0.01 0.03 0.01 0.00 0.00 0.00 0.01 0.03 0.02 0.00 0.00 0.01
0.05 0.05 0.04 0.05 0.08 0.10 0.09 0.10 0.09 0.08 0.11 0.12 0.12 0.10 0.10 0.10 0.05 0.04 0.03 0.00 0.00 0.00 0.02 0.01 0.00 0.00 0.00 0.00 0.00 0.00 0.00 0.00 0.00 0.00 0.00 0.03 0.03 0.00 0.00 0.00 0.01 0.02 0.04 0.03 0.01 0.02 0.04
0.07 0.08 0.10 0.17 0.13 0.11 0.11 0.12 0.13 0.16 0.16 0.17 0.20 0.19 0.13 0.10 0.07 0.05 0.02 0.00 0.00 0.01 0.12 0.07 0.01 0.00 0.00 0.01 0.00 0.00 0.00 0.00 0.00 0.00 0.00 0.02 0.01 0.00 0.00 0.00 0.02 0.03 0.06 0.04 0.02 0.05 0.04
0.07 0.12 0.19 0.16 0.16 0.17 0.21 0.19 0.18 0.17 0.23 0.26 0.26 0.28 0.18 0.13 0.06 0.01 0.01 0.00 0.00 0.08 0.27 0.05 0.01 0.02 0.01 0.05 0.05 0.00 0.00 0.01 0.02 0.01 0.02 0.04 0.01 0.06 0.05 0.02 0.03 0.02 0.02 0.04 0.07 0.15 0.04
0.07 0.23 0.19 0.11 0.15 0.24 0.27 0.25 0.25 0.24 0.23 0.28 0.34 0.33 0.20 0.07 0.01 0.01 0.00 0.00 0.01 0.15 0.19 0.01 0.01 0.01 0.01 0.05 0.07 0.01 0.01 0.11 0.09 0.02 0.07 0.08 0.00 0.01 0.07 0.02 0.04 0.05 0.02 0.04 0.07 0.21 0.32
0.07 0.14 0.16 0.21 0.24 0.25 0.24 0.29 0.31 0.35 0.32 0.30 0.40 0.43 0.38 0.11 0.01 0.00 0.00 0.01 0.04 0.10 0.07 0.00 0.00 0.01 0.04 0.04 0.05 0.05 0.01 0.08 0.20 0.32 0.32 0.06 0.02 0.03 0.01 0.02 0.04 0.05 0.10 0.10 0.19 0.29 0.44
0.08 0.12 0.21 0.31 0.32 0.28 0.27 0.26 0.31 0.37 0.40 0.36 0.47 0.56 0.63 0.09 0.01 0.00 0.00 0.02 0.07 0.06 0.01 0.04 0.02 0.02 0.02 0.03 0.06 0.08 0.11 0.14 0.31 0.42 0.45 0.33 0.13 0.13 0.05 0.10 0.19 0.25 0.37 0.54 0.51 0.60 0.31
0.09 0.12 0.20 0.33 0.37 0.37 0.41 0.36 0.34 0.28 0.32 0.45 0.51 0.75 0.74 0.16 0.05 0.01 0.00 0.03 0.06 0.01 0.02 0.05 0.06 0.06 0.07 0.06 0.09 0.08 0.25 0.12 0.13 0.29 0.41 0.26 0.16 0.15 0.07 0.15 0.37 0.41 0.40 0.61 0.31 0.29 0.13
0.10 0.17 0.32 0.34 0.35 0.39 0.56 0.62 0.45 0.34 0.28 0.55 0.75 1.07 1.01 0.24 0.17 0.09 0.05 0.08 0.02 0.03 0.04 0.07 0.13 0.13 0.10 0.05 0.06 0.08 0.13 0.10 0.02 0.08 0.27 0.22 0.13 0.04 0.04 0.11 0.41 0.50 0.58 0.42 0.35 0.10 0.18
0.15 0.17 0.34 0.43 0.48 0.70 0.73 0.61 0.60 0.49 0.38 0.59 1.40 1.49 1.15 0.17 0.25 0.32 0.27 0.07 0.02 0.06 0.10 0.13 0.10 0.04 0.01 0.01 0.03 0.03 0.03 0.01 0.00 0.01 0.08 0.15 0.22 0.15 0.24 0.30 0.41 0.44 0.29 0.44 0.76 0.30 0.12
0.14 0.13 0.18 0.50 0.66 0.69 0.60 0.75 0.79 0.75 0.56 0.69 1.37 1.55 0.97 0.39 0.47 0.63 0.33 0.03 0.04 0.06 0.11 0.16 0.06 0.05 0.01 0.00 0.00 0.00 0.01 0.00 0.00 0.00 0.06 0.26 0.23 0.26 0.75 0.68 0.38 0.44 0.43 0.36 0.44 0.23 0.11
0.10 0.15 0.21 0.41 0.59 0.65 0.72 0.85 0.76 0.76 0.89 0.83 1.21 1.26 0.68 0.74 0.88 0.48 0.10 0.02 0.08 0.08 0.12 0.16 0.07 0.02 0.01 0.00 0.00 0.00 0.00 0.01 0.00 0.02 0.12 0.32 0.31 0.47 0.49 0.20 0.15 0.21 0.24 0.11 0.45 0.30 0.11
0.07 0.11 0.21 0.37 0.55 0.66 0.67 0.79 0.64 0.62 0.95 0.94 1.05 0.99 1.01 0.40 0.47 0.13 0.02 0.05 0.12 0.11 0.14 0.17 0.05 0.01 0.00 0.00 0.00 0.00 0.00 0.00 0.00 0.01 0.13 0.28 0.63 0.60 0.61 0.41 0.39 0.41 0.27 0.12 0.25 0.56 0.22
0.07 0.12 0.25 0.31 0.38 0.49 0.55 0.56 0.56 0.53 0.76 1.01 1.01 0.87 1.29 0.97 0.21 0.04 0.02 0.06 0.13 0.11 0.11 0.16 0.07 0.03 0.01 0.00 0.00 0.00 0.00 0.00 0.00 0.01 0.17 0.64 0.55 0.66 0.59 0.53 0.35 0.16 0.16 0.20 0.30 0.55 0.23
0.07 0.10 0.13 0.19 0.27 0.39 0.45 0.65 0.88 0.89 1.01 0.87 0.64 0.32 0.30 0.34 0.14 0.02 0.08 0.09 0.17 0.27 0.16 0.17 0.07 0.02 0.01 0.00 0.00 0.00 0.00 0.00 0.00 0.01 0.21 0.68 0.83 1.10 0.60 0.21 0.37 0.12 0.10 0.14 0.30 0.34 0.25
0.05 0.06 0.08 0.17 0.22 0.29 0.36 0.74 0.93 1.10 0.99 0.76 0.35 0.10 0.04 0.02 0.01 0.01 0.03 0.07 0.18 0.33 0.30 0.17 0.08 0.01 0.01 0.00 0.00 0.00 0.00 0.00 0.00 0.00 0.08 0.37 0.66 0.82 0.42 0.05 0.08 0.07 0.07 0.09 0.13 0.28 0.35
0.04 0.05 0.08 0.12 0.16 0.19 0.22 0.49 0.76 1.09 1.25 0.76 0.21 0.03 0.03 0.05 0.04 0.03 0.01 0.02 0.12 0.29 0.22 0.17 0.13 0.09 0.02 0.01 0.00 0.00 0.00 0.00 0.00 0.00 0.06 0.19 0.32 0.50 0.41 0.19 0.14 0.21 0.12 0.09 0.12 0.16 0.27
0.04 0.05 0.08 0.09 0.11 0.12 0.19 0.46 0.75 1.03 1.09 0.62 0.15 0.06 0.06 0.04 0.05 0.02 0.01 0.02 0.06 0.16 0.21 0.16 0.14 0.10 0.02 0.03 0.01 0.02 0.02 0.00 0.01 0.02 0.01 0.04 0.07 0.16 0.26 0.25 0.16 0.11 0.10 0.08 0.09 0.11 0.19
0.04 0.07 0.07 0.09 0.09 0.11 0.20 0.38 0.62 0.49 0.43 0.41 0.08 0.05 0.07 0.04 0.01 0.01 0.03 0.04 0.04 0.10 0.22 0.25 0.19 0.07 0.05 0.04 0.08 0.08 0.11 0.05 0.01 0.01 0.00 0.00 0.01 0.02 0.00 0.00 0.01 0.00 0.01 0.07 0.07 0.05 0.05
0.05 0.06 0.06 0.08 0.10 0.08 0.16 0.19 0.34 0.41 0.36 0.48 0.16 0.04 0.06 0.04 0.02 0.00 0.00 0.02 0.07 0.10 0.16 0.22 0.19 0.11 0.16 0.06 0.15 0.08 0.08 0.06 0.01 0.00 0.00 0.00 0.01 0.02 0.00 0.00 0.00 0.00 0.00 0.00 0.00 0.00 0.00
0.06 0.05 0.05 0.07 0.09 0.07 0.13 0.21 0.32 0.40 0.29 0.39 0.20 0.02 0.12 0.07 0.01 0.00 0.00 0.00 0.10 0.11 0.18 0.28 0.25 0.18 0.20 0.18 0.17 0.09 0.03 0.00 0.00 0.00 0.00 0.01 0.02 0.02 0.00 0.00 0.00 0.00 0.00 0.00 0.00 0.00 0.00
0.06 0.04 0.05 0.06 0.09 0.07 0.10 0.20 0.28 0.37 0.31 0.30 0.24 0.02 0.08 0.06 0.00 0.00 0.00 0.00 0.09 0.19 0.21 0.29 0.33 0.30 0.22 0.24 0.16 0.07 0.02 0.00 0.00 0.00 0.00 0.01 0.01 0.01 0.01 0.01 0.00 0.00 0.00 0.00 0.00 0.00 0.00
0.06 0.05 0.05 0.04 0.08 0.07 0.09 0.17 0.24 0.24 0.27 0.25 0.13 0.02 0.09 0.07 0.01 0.00 0.00 0.00 0.05 0.20 0.21 0.22 0.26 0.15 0.11 0.08 0.05 0.03 0.05 0.00 0.00 0.00 0.00 0.00 0.00 0.00 0.00 0.00 0.00 0.00 0.00 0.00 0.00 0.00 0.00

GFSGBSN_prec_precacc12_024.txt.gz
Total_Precipitation_Accumulation
0.07 0.08 0.07 0.07 0.06 0.07 0.07 0.07 0.07 0.08 0.05 0.04 0.06 0.05 0.03 0.00 0.00 0.00 0.00 0.00 0.00 0.00 0.00 0.00 0.00 0.01 0.00 0.00 0.00 0.00 0.00 0.00 0.00 0.02 0.01 0.00 0.00 0.00 0.00 0.00 0.00 0.00 0.00 0.00 0.00 0.00 0.00
0.05 0.05 0.05 0.06 0.07 0.07 0.08 0.09 0.12 0.12 0.10 0.08 0.06 0.05 0.04 0.02 0.00 0.00 0.00 0.00 0.00 0.00 0.00 0.00 0.00 0.02 0.01 0.00 0.00 0.00 0.00 0.00 0.00 0.00 0.01 0.02 0.01 0.00 0.00 0.00 0.00 0.00 0.00 0.00 0.00 0.00 0.00
0.05 0.04 0.05 0.06 0.07 0.08 0.10 0.11 0.11 0.11 0.11 0.10 0.07 0.06 0.04 0.03 0.01 0.00 0.00 0.00 0.00 0.00 0.00 0.00 0.00 0.01 0.01 0.00 0.00 0.00 0.00 0.00 0.00 0.00 0.00 0.01 0.02 0.05 0.04 0.01 0.00 0.00 0.01 0.00 0.00 0.00 0.00
0.04 0.04 0.04 0.07 0.08 0.09 0.09 0.10 0.10 0.10 0.09 0.10 0.11 0.08 0.09 0.08 0.05 0.01 0.00 0.01 0.03 0.01 0.00 0.00 0.00 0.01 0.01 0.00 0.00 0.00 0.00 0.00 0.00 0.00 0.00 0.00 0.01 0.04 0.04 0.02 0.00 0.01 0.01 0.00 0.00 0.00 0.00
0.03 0.05 0.07 0.08 0.08 0.06 0.06 0.07 0.07 0.08 0.11 0.15 0.16 0.13 0.09 0.09 0.06 0.03 0.02 0.03 0.04 0.03 0.01 0.02 0.00 0.01 0.00 0.00 0.00 0.00 0.00 0.00 0.00 0.00 0.00 0.00 0.00 0.00 0.01 0.03 0.02 0.01 0.01 0.00 0.00 0.00 0.00
0.02 0.04 0.04 0.03 0.02 0.03 0.05 0.06 0.08 0.10 0.11 0.12 0.14 0.15 0.11 0.10 0.10 0.05 0.06 0.07 0.05 0.02 0.01 0.04 0.02 0.01 0.00 0.00 0.00 0.00 0.00 0.00 0.00 0.00 0.00 0.00 0.00 0.00 0.00 0.03 0.02 0.00 0.00 0.00 0.00 0.00 0.00
0.01 0.02 0.03 0.03 0.03 0.06 0.09 0.09 0.10 0.10 0.10 0.13 0.16 0.20 0.20 0.15 0.11 0.07 0.04 0.04 0.01 0.00 0.03 0.01 0.01 0.00 0.00 0.00 0.00 0.00 0.00 0.00 0.00 0.00 0.00 0.00 0.00 0.00 0.00 0.00 0.00 0.00 0.00 0.00 0.00 0.00 0.01
0.01 0.01 0.02 0.05 0.09 0.09 0.09 0.10 0.10 0.10 0.12 0.13 0.15 0.18 0.21 0.20 0.15 0.07 0.02 0.00 0.00 0.00 0.00 0.00 0.00 0.00 0.00 0.00 0.00 0.00 0.00 0.00 0.00 0.00 0.00 0.00 0.00 0.00 0.00 0.00 0.00 0.00 0.00 0.00 0.00 0.01 0.03
0.01 0.02 0.03 0.12 0.13 0.11 0.11 0.13 0.15 0.17 0.17 0.18 0.21 0.24 0.28 0.27 0.27 0.15 0.01 0.00 0.00 0.00 0.01 0.01 0.00 0.00 0.00 0.00 0.00 0.00 0.00 0.00 0.00 0.00 0.00 0.00 0.00 0.00 0.00 0.00 0.00 0.00 0.00 0.00 0.00 0.03 0.03
0.01 0.02 0.03 0.05 0.11 0.15 0.20 0.20 0.21 0.21 0.25 0.29 0.28 0.32 0.35 0.41 0.51 0.21 0.08 0.00 0.00 0.01 0.03 0.01 0.01 0.01 0.01 0.02 0.01 0.00 0.00 0.00 0.01 0.00 0.01 0.02 0.00 0.00 0.00 0.00 0.00 0.00 0.00 0.00 0.00 0.05 0.02
0.02 0.03 0.05 0.03 0.09 0.20 0.27 0.30 0.31 0.26 0.24 0.29 0.34 0.37 0.41 0.62 0.47 0.13 0.07 0.02 0.00 0.01 0.02 0.00 0.01 0.01 0.02 0.02 0.01 0.00 0.00 0.06 0.07 0.01 0.03 0.05 0.00 0.00 0.00 0.00 0.00 0.00 0.00 0.00 0.02 0.15 0.26
0.03 0.05 0.07 0.06 0.10 0.19 0.24 0.32 0.31 0.34 0.33 0.30 0.40 0.45 0.60 0.67 0.38 0.06 0.00 0.00 0.00 0.01 0.01 0.00 0.00 0.01 0.03 0.02 0.02 0.01 0.01 0.06 0.18 0.28 0.26 0.04 0.00 0.01 0.00 0.00 0.01 0.01 0.01 0.02 0.08 0.23 0.41
0.06 0.09 0.10 0.11 0.14 0.16 0.27 0.26 0.29 0.35 0.39 0.36 0.46 0.53 0.85 0.67 0.40 0.07 0.00 0.00 0.01 0.01 0.00 0.00 0.00 0.01 0.01 0.01 0.02 0.03 0.08 0.13 0.30 0.42 0.43 0.26 0.06 0.00 0.00 0.01 0.02 0.04 0.14 0.19 0.25 0.54 0.30
0.08 0.09 0.13 0.16 0.17 0.25 0.38 0.34 0.37 0.39 0.46 0.49 0.52 0.73 0.86 0.67 0.43 0.08 0.01 0.00 0.01 0.00 0.00 0.00 0.00 0.01 0.01 0.01 0.04 0.04 0.19 0.10 0.13 0.30 0.31 0.19 0.11 0.03 0.00 0.00 0.03 0.03 0.08 0.27 0.14 0.23 0.13
0.09 0.11 0.17 0.17 0.16 0.23 0.49 0.60 0.54 0.52 0.36 0.60 0.75 1.07 1.20 0.76 0.54 0.17 0.03 0.04 0.00 0.00 0.00 0.02 0.05 0.09 0.03 0.02 0.04 0.07 0.10 0.08 0.01 0.07 0.10 0.06 0.05 0.01 0.00 0.00 0.10 0.16 0.28 0.28 0.38 0.17 0.25
0.11 0.12 0.12 0.13 0.22 0.54 0.66 0.59 0.80 0.80 0.62 0.67 1.36 1.48 1.43 0.64 0.51 0.33 0.24 0.05 0.00 0.00 0.01 0.05 0.07 0.04 0.00 0.00 0.02 0.03 0.02 0.01 0.00 0.00 0.00 0.01 0.12 0.11 0.13 0.09 0.11 0.12 0.11 0.40 0.90 0.40 0.15
0.10 0.09 0.09 0.16 0.38 0.55 0.52 0.75 0.89 0.87 0.79 0.71 1.38 1.60 1.24 0.87 0.75 0.63 0.32 0.02 0.00 0.00 0.02 0.07 0.05 0.05 0.00 0.00 0.00 0.00 0.00 0.00 0.00 0.00 0.00 0.04 0.11 0.12 0.41 0.35 0.13 0.11 0.25 0.40 0.45 0.23 0.11
0.09 0.08 0.10 0.18 0.33 0.55 0.64 0.77 0.76 0.86 1.23 0.85 1.23 1.33 0.98 1.41 1.22 0.58 0.12 0.00 0.00 0.01 0.04 0.09 0.07 0.02 0.01 0.00 0.00 0.00 0.00 0.00 0.00 0.00 0.02 0.07 0.14 0.14 0.14 0.12 0.09 0.09 0.15 0.11 0.46 0.30 0.11
0.09 0.07 0.08 0.19 0.35 0.58 0.60 0.60 0.52 0.69 1.25 1.04 1.11 1.09 1.36 0.84 0.63 0.21 0.03 0.00 0.01 0.04 0.09 0.15 0.05 0.01 0.00 0.01 0.00 0.00 0.00 0.00 0.00 0.00 0.04 0.12 0.32 0.27 0.27 0.38 0.33 0.39 0.26 0.13 0.26 0.57 0.22
0.08 0.07 0.07 0.14 0.24 0.37 0.39 0.37 0.41 0.58 0.92 1.14 1.09 1.20 1.95 1.38 0.29 0.03 0.01 0.01 0.02 0.05 0.10 0.16 0.08 0.04 0.04 0.01 0.00 0.00 0.00 0.00 0.00 0.01 0.13 0.50 0.45 0.39 0.55 0.64 0.50 0.24 0.21 0.24 0.34 0.58 0.24
0.08 0.08 0.06 0.08 0.14 0.24 0.31 0.32 0.67 0.92 1.04 0.88 0.67 0.42 0.51 0.60 0.23 0.01 0.02 0.01 0.02 0.13 0.14 0.17 0.08 0.03 0.05 0.02 0.00 0.00 0.00 0.00 0.00 0.01 0.20 0.65 0.84 1.07 0.68 0.32 0.72 0.32 0.15 0.19 0.36 0.36 0.25
0.07 0.08 0.05 0.06 0.09 0.17 0.20 0.26 0.59 1.14 1.01 0.74 0.41 0.13 0.05 0.02 0.01 0.01 0.02 0.01 0.02 0.12 0.20 0.17 0.08 0.05 0.05 0.02 0.00 0.00 0.00 0.00 0.00 0.00 0.10 0.45 0.75 0.93 0.53 0.15 0.20 0.17 0.10 0.11 0.13 0.28 0.35
0.07 0.06 0.08 0.05 0.06 0.11 0.11 0.26 0.61 1.13 1.38 0.83 0.41 0.07 0.03 0.07 0.03 0.02 0.01 0.00 0.01 0.10 0.14 0.16 0.13 0.13 0.03 0.02 0.01 0.00 0.00 0.00 0.00 0.01 0.09 0.24 0.39 0.65 0.57 0.35 0.15 0.24 0.13 0.09 0.12 0.16 0.27
0.07 0.06 0.08 0.03 0.04 0.07 0.09 0.20 0.58 1.09 1.26 0.82 0.25 0.12 0.07 0.07 0.05 0.02 0.01 0.02 0.01 0.04 0.09 0.12 0.13 0.10 0.02 0.04 0.02 0.01 0.02 0.00 0.00 0.01 0.01 0.05 0.17 0.31 0.40 0.38 0.27 0.19 0.11 0.08 0.09 0.11 0.19
0.07 0.08 0.07 0.02 0.03 0.06 0.07 0.17 0.46 0.51 0.49 0.53 0.15 0.09 0.05 0.03 0.01 0.02 0.03 0.03 0.01 0.07 0.09 0.16 0.18 0.05 0.05 0.08 0.08 0.06 0.09 0.03 0.00 0.01 0.00 0.00 0.05 0.11 0.06 0.07 0.09 0.01 0.04 0.09 0.07 0.07 0.07
0.07 0.09 0.07 0.03 0.03 0.04 0.04 0.10 0.30 0.43 0.39 0.51 0.21 0.05 0.03 0.03 0.02 0.00 0.00 0.01 0.03 0.06 0.09 0.16 0.16 0.08 0.11 0.10 0.16 0.07 0.06 0.03 0.00 0.00 0.00 0.00 0.00 0.05 0.01 0.01 0.00 0.00 0.00 0.00 0.00 0.02 0.00
0.08 0.07 0.06 0.03 0.03 0.03 0.03 0.06 0.21 0.38 0.30 0.40 0.37 0.05 0.06 0.04 0.01 0.00 0.00 0.00 0.02 0.05 0.13 0.23 0.22 0.15 0.19 0.21 0.17 0.07 0.01 0.00 0.00 0.00 0.00 0.00 0.00 0.01 0.00 0.00 0.00 0.00 0.00 0.00 0.00 0.00 0.00
0.08 0.05 0.04 0.03 0.03 0.03 0.03 0.07 0.18 0.35 0.32 0.31 0.31 0.04 0.03 0.04 0.00 0.00 0.00 0.00 0.01 0.08 0.19 0.26 0.30 0.29 0.28 0.24 0.12 0.08 0.02 0.00 0.00 0.00 0.00 0.00 0.00 0.00 0.00 0.00 0.00 0.00 0.00 0.00 0.00 0.00 0.00
0.07 0.04 0.04 0.02 0.02 0.03 0.03 0.08 0.18 0.23 0.28 0.27 0.25 0.06 0.06 0.05 0.00 0.00 0.00 0.00 0.00 0.05 0.15 0.21 0.26 0.20 0.21 0.07 0.03 0.05 0.06 0.00 0.00 0.00 0.00 0.00 0.00 0.00 0.00 0.00 0.00 0.00 0.00 0.00 0.00 0.00 0.00

GFSGBSN_prec_precacc12_027.txt.gz
Total_Precipitation_Accumulation
0.07 0.08 0.07 0.06 0.05 0.07 0.06 0.06 0.07 0.08 0.07 0.09 0.12 0.09 0.08 0.07 0.04 0.01 0.00 0.00 0.00 0.00 0.00 0.00 0.00 0.01 0.00 0.00 0.00 0.00 0.00 0.00 0.00 0.03 0.02 0.00 0.00 0.00 0.00 0.00 0.00 0.00 0.00 0.00 0.00 0.00 0.00
0.04 0.05 0.05 0.06 0.07 0.07 0.08 0.09 0.12 0.11 0.09 0.10 0.09 0.09 0.08 0.07 0.06 0.02 0.00 0.00 0.00 0.00 0.00 0.00 0.00 0.00 0.00 0.00 0.00 0.00 0.00 0.00 0.00 0.01 0.01 0.02 0.00 0.00 0.00 0.00 0.00 0.00 0.00 0.00 0.00 0.00 0.00
0.01 0.02 0.04 0.06 0.07 0.08 0.10 0.10 0.11 0.10 0.11 0.11 0.10 0.11 0.08 0.06 0.07 0.04 0.00 0.00 0.00 0.00 0.00 0.00 0.00 0.00 0.00 0.00 0.00 0.00 0.00 0.00 0.00 0.00 0.01 0.02 0.02 0.04 0.03 0.01 0.00 0.00 0.00 0.00 0.00 0.00 0.00
0.00 0.00 0.01 0.06 0.07 0.09 0.09 0.10 0.10 0.10 0.09 0.10 0.12 0.13 0.14 0.11 0.10 0.08 0.02 0.01 0.02 0.01 0.00 0.00 0.01 0.00 0.00 0.00 0.00 0.00 0.00 0.00 0.00 0.00 0.00 0.00 0.03 0.05 0.04 0.01 0.00 0.00 0.00 0.00 0.00 0.00 0.00
0.00 0.00 0.00 0.03 0.07 0.06 0.05 0.06 0.07 0.08 0.11 0.15 0.17 0.16 0.15 0.15 0.12 0.10 0.06 0.04 0.05 0.07 0.03 0.03 0.00 0.00 0.00 0.00 0.00 0.00 0.00 0.00 0.00 0.00 0.00 0.00 0.00 0.00 0.00 0.03 0.02 0.00 0.00 0.00 0.00 0.00 0.00
0.00 0.00 0.00 0.01 0.01 0.03 0.04 0.06 0.07 0.10 0.10 0.12 0.14 0.16 0.18 0.17 0.17 0.13 0.12 0.11 0.07 0.04 0.02 0.04 0.03 0.00 0.00 0.00 0.00 0.00 0.00 0.00 0.00 0.00 0.00 0.00 0.00 0.00 0.00 0.02 0.01 0.00 0.00 0.00 0.00 0.00 0.00
0.01 0.00 0.00 0.01 0.01 0.03 0.07 0.08 0.09 0.09 0.10 0.13 0.15 0.19 0.24 0.26 0.26 0.18 0.11 0.07 0.02 0.01 0.02 0.01 0.01 0.00 0.00 0.00 0.00 0.00 0.00 0.00 0.00 0.00 0.00 0.00 0.00 0.00 0.00 0.00 0.00 0.00 0.00 0.00 0.00 0.00 0.00
0.01 0.01 0.02 0.02 0.03 0.02 0.04 0.08 0.09 0.10 0.13 0.14 0.16 0.19 0.24 0.31 0.31 0.36 0.17 0.01 0.00 0.00 0.00 0.00 0.00 0.00 0.00 0.00 0.00 0.00 0.00 0.00 0.00 0.00 0.00 0.00 0.00 0.00 0.00 0.00 0.00 0.00 0.00 0.00 0.00 0.00 0.01
0.01 0.02 0.03 0.05 0.02 0.02 0.02 0.08 0.13 0.18 0.19 0.21 0.22 0.25 0.29 0.31 0.52 0.63 0.21 0.01 0.00 0.00 0.00 0.00 0.00 0.00 0.00 0.00 0.00 0.00 0.00 0.00 0.00 0.00 0.00 0.00 0.00 0.00 0.00 0.00 0.00 0.00 0.00 0.00 0.00 0.00 0.00
0.01 0.02 0.03 0.03 0.02 0.03 0.06 0.11 0.18 0.24 0.27 0.27 0.25 0.32 0.36 0.45 0.72 0.74 0.36 0.04 0.00 0.00 0.00 0.00 0.00 0.01 0.01 0.01 0.00 0.00 0.00 0.00 0.01 0.00 0.00 0.02 0.00 0.00 0.00 0.00 0.00 0.00 0.00 0.00 0.00 0.01 0.00
0.02 0.03 0.05 0.04 0.04 0.07 0.14 0.22 0.31 0.27 0.20 0.24 0.31 0.36 0.42 0.71 0.79 0.62 0.47 0.10 0.00 0.00 0.00 0.00 0.01 0.01 0.03 0.02 0.00 0.00 0.00 0.01 0.02 0.00 0.02 0.04 0.00 0.00 0.00 0.00 0.00 0.00 0.00 0.00 0.01 0.02 0.03
0.03 0.04 0.07 0.07 0.09 0.16 0.17 0.22 0.22 0.30 0.30 0.26 0.36 0.44 0.60 0.69 0.63 0.37 0.32 0.15 0.01 0.00 0.00 0.00 0.00 0.02 0.04 0.02 0.02 0.01 0.01 0.03 0.08 0.17 0.17 0.03 0.00 0.00 0.00 0.00 0.00 0.01 0.01 0.02 0.04 0.09 0.10
0.04 0.05 0.09 0.10 0.13 0.11 0.17 0.17 0.20 0.30 0.45 0.48 0.47 0.51 0.83 0.71 0.65 0.50 0.31 0.22 0.04 0.00 0.00 0.01 0.00 0.01 0.01 0.01 0.01 0.02 0.02 0.08 0.14 0.23 0.32 0.23 0.06 0.00 0.00 0.00 0.00 0.04 0.16 0.19 0.15 0.15 0.05
0.05 0.08 0.11 0.12 0.11 0.14 0.16 0.11 0.15 0.36 0.68 0.52 0.52 0.70 0.80 0.67 0.59 1.00 0.37 0.11 0.01 0.00 0.00 0.00 0.00 0.00 0.00 0.00 0.02 0.02 0.04 0.04 0.07 0.24 0.31 0.19 0.11 0.04 0.01 0.00 0.01 0.02 0.07 0.20 0.07 0.01 0.00
0.06 0.09 0.09 0.09 0.10 0.09 0.25 0.34 0.39 0.56 0.56 0.59 0.73 0.95 1.06 0.73 0.71 0.95 0.42 0.11 0.00 0.00 0.00 0.00 0.00 0.01 0.01 0.00 0.01 0.03 0.03 0.01 0.01 0.07 0.11 0.06 0.02 0.00 0.00 0.00 0.05 0.13 0.22 0.11 0.17 0.15 0.17
0.08 0.09 0.08 0.09 0.11 0.29 0.45 0.36 0.59 0.78 0.82 0.64 1.25 1.33 1.27 0.64 0.69 0.94 0.47 0.06 0.00 0.00 0.00 0.00 0.01 0.01 0.00 0.00 0.01 0.01 0.01 0.00 0.00 0.00 0.00 0.00 0.01 0.00 0.02 0.03 0.04 0.06 0.06 0.12 0.44 0.27 0.10
0.09 0.09 0.08 0.08 0.11 0.20 0.31 0.55 0.73 0.78 0.90 0.67 1.32 1.52 1.14 0.92 0.88 0.96 0.48 0.02 0.00 0.00 0.00 0.00 0.01 0.02 0.00 0.00 0.00 0.00 0.00 0.00 0.00 0.00 0.00 0.00 0.03 0.02 0.09 0.22 0.07 0.04 0.16 0.13 0.10 0.05 0.07
0.10 0.09 0.08 0.07 0.08 0.17 0.35 0.60 0.63 0.67 1.13 0.96 1.22 1.28 0.97 1.55 1.46 0.82 0.15 0.00 0.00 0.00 0.01 0.02 0.02 0.01 0.01 0.00 0.00 0.00 0.00 0.00 0.00 0.00 0.00 0.00 0.06 0.08 0.06 0.03 0.08 0.05 0.04 0.06 0.11 0.08 0.07
0.11 0.09 0.08 0.05 0.08 0.26 0.32 0.42 0.46 0.48 0.93 1.07 1.19 1.00 1.37 0.92 0.72 0.31 0.04 0.00 0.00 0.00 0.02 0.06 0.03 0.01 0.00 0.01 0.00 0.00 0.00 0.00 0.00 0.00 0.01 0.03 0.22 0.22 0.20 0.33 0.27 0.31 0.08 0.13 0.20 0.47 0.26
0.09 0.09 0.08 0.04 0.05 0.17 0.23 0.19 0.23 0.34 0.83 1.18 1.08 1.22 2.23 1.32 0.32 0.06 0.01 0.00 0.00 0.00 0.04 0.10 0.06 0.04 0.04 0.02 0.00 0.00 0.00 0.00 0.00 0.00 0.05 0.22 0.29 0.25 0.37 0.60 0.65 0.35 0.11 0.16 0.36 0.66 0.25
0.09 0.10 0.08 0.06 0.05 0.10 0.14 0.16 0.15 0.53 1.01 0.89 0.64 0.49 0.66 0.68 0.29 0.01 0.01 0.00 0.00 0.01 0.06 0.12 0.07 0.03 0.05 0.02 0.01 0.00 0.00 0.00 0.00 0.01 0.12 0.44 0.50 0.61 0.47 0.33 0.91 0.48 0.17 0.19 0.47 0.40 0.25
0.09 0.10 0.07 0.06 0.04 0.05 0.10 0.13 0.16 0.61 0.96 0.74 0.42 0.18 0.05 0.03 0.01 0.01 0.01 0.00 0.00 0.01 0.07 0.11 0.07 0.05 0.05 0.03 0.01 0.00 0.00 0.00 0.00 0.00 0.11 0.43 0.62 0.74 0.45 0.16 0.30 0.25 0.09 0.15 0.15 0.28 0.35
0.09 0.07 0.10 0.06 0.02 0.02 0.05 0.11 0.28 0.69 1.24 0.83 0.47 0.13 0.03 0.05 0.01 0.00 0.01 0.00 0.00 0.01 0.04 0.06 0.11 0.13 0.03 0.02 0.01 0.00 0.00 0.00 0.00 0.01 0.09 0.26 0.39 0.67 0.59 0.36 0.23 0.32 0.15 0.11 0.12 0.16 0.27
0.08 0.07 0.10 0.04 0.01 0.01 0.04 0.09 0.25 0.55 1.07 0.88 0.39 0.26 0.08 0.10 0.03 0.00 0.01 0.02 0.02 0.01 0.01 0.04 0.10 0.10 0.01 0.02 0.02 0.00 0.00 0.00 0.00 0.00 0.01 0.06 0.20 0.40 0.47 0.45 0.39 0.27 0.13 0.08 0.09 0.11 0.19
0.08 0.09 0.09 0.03 0.01 0.01 0.03 0.06 0.21 0.39 0.42 0.59 0.21 0.25 0.07 0.02 0.01 0.01 0.03 0.05 0.03 0.05 0.03 0.07 0.14 0.05 0.05 0.09 0.09 0.03 0.02 0.01 0.00 0.00 0.00 0.00 0.05 0.15 0.14 0.16 0.16 0.02 0.09 0.13 0.08 0.09 0.07
0.08 0.09 0.08 0.03 0.01 0.01 0.02 0.03 0.13 0.32 0.31 0.58 0.30 0.22 0.07 0.01 0.00 0.00 0.00 0.02 0.03 0.02 0.03 0.11 0.13 0.07 0.07 0.15 0.19 0.04 0.04 0.01 0.00 0.00 0.00 0.00 0.00 0.07 0.04 0.04 0.00 0.00 0.01 0.01 0.01 0.02 0.00
0.08 0.07 0.06 0.03 0.01 0.01 0.02 0.03 0.09 0.31 0.27 0.41 0.41 0.15 0.03 0.01 0.00 0.00 0.00 0.00 0.00 0.01 0.05 0.16 0.19 0.11 0.13 0.22 0.20 0.06 0.01 0.00 0.00 0.00 0.00 0.00 0.01 0.01 0.02 0.02 0.00 0.00 0.00 0.00 0.00 0.00 0.00
0.07 0.05 0.05 0.02 0.01 0.01 0.02 0.03 0.08 0.26 0.25 0.28 0.38 0.11 0.06 0.01 0.00 0.00 0.00 0.00 0.00 0.01 0.06 0.15 0.19 0.18 0.20 0.26 0.16 0.06 0.01 0.00 0.00 0.00 0.00 0.00 0.00 0.00 0.00 0.00 0.00 0.00 0.00 0.00 0.00 0.00 0.00
0.06 0.05 0.04 0.02 0.01 0.01 0.02 0.02 0.05 0.15 0.22 0.23 0.29 0.07 0.05 0.02 0.00 0.00 0.00 0.00 0.00 0.00 0.04 0.14 0.15 0.15 0.19 0.12 0.08 0.04 0.06 0.00 0.00 0.00 0.00 0.00 0.00 0.00 0.00 0.00 0.00 0.00 0.00 0.00 0.00 0.00 0.00

GFSGBSN_prec_precacc12_030.txt.gz
Total_Precipitation_Accumulation
0.00 0.02 0.03 0.05 0.05 0.06 0.05 0.05 0.06 0.07 0.06 0.08 0.12 0.11 0.10 0.09 0.09 0.10 0.03 0.00 0.00 0.00 0.00 0.00 0.00 0.00 0.00 0.00 0.00 0.00 0.00 0.00 0.00 0.04 0.02 0.00 0.00 0.00 0.00 0.00 0.00 0.00 0.00 0.00 0.00 0.00 0.00
0.00 0.00 0.00 0.00 0.04 0.07 0.08 0.08 0.11 0.10 0.08 0.09 0.09 0.09 0.09 0.09 0.09 0.09 0.06 0.00 0.00 0.00 0.00 0.00 0.00 0.00 0.00 0.00 0.00 0.00 0.00 0.00 0.00 0.01 0.02 0.02 0.00 0.00 0.00 0.00 0.00 0.00 0.00 0.00 0.00 0.00 0.00
0.00 0.00 0.00 0.00 0.00 0.02 0.09 0.10 0.10 0.09 0.10 0.10 0.09 0.10 0.09 0.08 0.09 0.09 0.07 0.02 0.00 0.00 0.00 0.00 0.00 0.00 0.00 0.00 0.00 0.00 0.00 0.00 0.00 0.01 0.02 0.03 0.02 0.03 0.02 0.00 0.00 0.00 0.00 0.00 0.00 0.00 0.00
0.00 0.00 0.00 0.00 0.00 0.01 0.03 0.09 0.09 0.09 0.09 0.09 0.11 0.12 0.13 0.13 0.14 0.12 0.10 0.07 0.03 0.02 0.00 0.00 0.01 0.00 0.00 0.00 0.00 0.00 0.00 0.00 0.00 0.00 0.01 0.02 0.04 0.05 0.04 0.01 0.00 0.00 0.00 0.00 0.00 0.00 0.00
0.00 0.00 0.00 0.00 0.01 0.01 0.01 0.03 0.06 0.07 0.10 0.13 0.16 0.14 0.13 0.16 0.17 0.16 0.12 0.18 0.10 0.08 0.04 0.03 0.00 0.00 0.00 0.00 0.00 0.00 0.00 0.00 0.00 0.00 0.00 0.00 0.01 0.00 0.00 0.02 0.01 0.00 0.00 0.00 0.00 0.00 0.00
0.01 0.01 0.00 0.00 0.01 0.02 0.02 0.02 0.03 0.08 0.08 0.10 0.13 0.16 0.17 0.17 0.21 0.21 0.22 0.27 0.17 0.09 0.04 0.05 0.03 0.00 0.00 0.00 0.00 0.00 0.00 0.00 0.00 0.00 0.00 0.00 0.00 0.00 0.00 0.01 0.01 0.00 0.00 0.00 0.00 0.00 0.00
0.01 0.00 0.00 0.02 0.03 0.03 0.02 0.03 0.03 0.05 0.07 0.10 0.14 0.17 0.22 0.25 0.30 0.31 0.45 0.64 0.19 0.05 0.01 0.00 0.01 0.00 0.00 0.00 0.00 0.00 0.00 0.00 0.00 0.00 0.00 0.00 0.00 0.00 0.00 0.00 0.00 0.00 0.00 0.00 0.00 0.00 0.00
0.01 0.01 0.02 0.03 0.04 0.02 0.02 0.02 0.05 0.06 0.10 0.13 0.16 0.18 0.21 0.30 0.32 0.54 0.77 0.42 0.05 0.00 0.00 0.00 0.00 0.00 0.00 0.00 0.00 0.00 0.00 0.00 0.00 0.00 0.00 0.00 0.00 0.00 0.00 0.00 0.00 0.00 0.00 0.00 0.00 0.00 0.00
0.01 0.02 0.03 0.05 0.03 0.03 0.02 0.04 0.06 0.08 0.14 0.17 0.20 0.20 0.25 0.31 0.51 0.72 0.69 0.28 0.00 0.00 0.00 0.00 0.00 0.00 0.00 0.00 0.00 0.00 0.00 0.00 0.00 0.00 0.00 0.00 0.00 0.00 0.00 0.00 0.00 0.00 0.00 0.00 0.00 0.00 0.00
0.02 0.02 0.03 0.03 0.03 0.03 0.05 0.08 0.11 0.16 0.18 0.21 0.22 0.25 0.32 0.45 0.73 0.81 0.65 0.30 0.07 0.00 0.00 0.00 0.00 0.00 0.00 0.01 0.00 0.00 0.00 0.00 0.00 0.00 0.00 0.01 0.00 0.00 0.00 0.00 0.00 0.00 0.00 0.00 0.00 0.01 0.00
0.02 0.03 0.05 0.05 0.04 0.07 0.14 0.19 0.21 0.16 0.10 0.17 0.27 0.31 0.41 0.75 0.81 0.70 0.81 0.37 0.20 0.04 0.00 0.00 0.01 0.01 0.02 0.01 0.00 0.00 0.00 0.00 0.01 0.00 0.01 0.02 0.00 0.00 0.00 0.00 0.00 0.00 0.00 0.00 0.01 0.01 0.02
0.02 0.04 0.07 0.06 0.07 0.15 0.17 0.19 0.14 0.08 0.09 0.17 0.41 0.46 0.59 0.70 0.64 0.38 0.60 0.68 0.41 0.12 0.00 0.01 0.01 0.03 0.05 0.02 0.01 0.00 0.01 0.03 0.03 0.06 0.06 0.01 0.00 0.00 0.00 0.00 0.00 0.01 0.01 0.02 0.04 0.06 0.09
0.04 0.06 0.09 0.09 0.08 0.09 0.15 0.10 0.08 0.07 0.19 0.46 0.44 0.52 0.86 0.73 0.65 0.52 0.58 0.85 0.50 0.05 0.00 0.01 0.01 0.03 0.01 0.01 0.01 0.01 0.02 0.04 0.05 0.09 0.11 0.10 0.04 0.00 0.00 0.00 0.00 0.04 0.16 0.19 0.16 0.16 0.04
0.06 0.09 0.11 0.09 0.10 0.10 0.07 0.05 0.12 0.29 0.55 0.56 0.33 0.61 0.76 0.68 0.58 1.15 0.78 0.54 0.26 0.01 0.00 0.00 0.00 0.01 0.01 0.00 0.01 0.01 0.02 0.02 0.03 0.11 0.17 0.09 0.04 0.03 0.01 0.00 0.01 0.02 0.07 0.19 0.07 0.01 0.00
0.07 0.11 0.10 0.10 0.10 0.08 0.11 0.24 0.35 0.49 0.56 0.57 0.45 0.66 0.90 0.71 0.66 1.14 0.96 0.41 0.09 0.00 0.00 0.00 0.00 0.01 0.00 0.00 0.00 0.01 0.02 0.00 0.00 0.01 0.06 0.05 0.01 0.00 0.00 0.00 0.05 0.12 0.21 0.11 0.18 0.14 0.15
0.09 0.11 0.10 0.11 0.07 0.06 0.13 0.25 0.54 0.63 0.78 0.65 0.70 0.92 1.14 0.64 0.64 1.06 0.84 0.27 0.01 0.00 0.00 0.00 0.00 0.00 0.00 0.00 0.00 0.01 0.00 0.00 0.00 0.00 0.00 0.00 0.01 0.00 0.00 0.02 0.04 0.05 0.04 0.13 0.44 0.22 0.09
0.10 0.10 0.11 0.10 0.06 0.04 0.07 0.32 0.51 0.48 0.69 0.68 0.66 1.13 1.08 0.82 0.81 1.03 0.65 0.12 0.00 0.00 0.00 0.00 0.00 0.00 0.00 0.00 0.00 0.00 0.00 0.00 0.00 0.00 0.00 0.01 0.03 0.01 0.01 0.02 0.01 0.03 0.13 0.14 0.12 0.05 0.03
0.10 0.11 0.11 0.08 0.06 0.03 0.10 0.32 0.27 0.36 0.77 0.66 0.69 1.01 0.89 1.29 1.34 0.80 0.23 0.02 0.00 0.00 0.00 0.00 0.00 0.00 0.00 0.00 0.00 0.00 0.00 0.00 0.00 0.00 0.00 0.00 0.05 0.03 0.01 0.00 0.01 0.02 0.02 0.08 0.26 0.08 0.10
0.10 0.10 0.10 0.07 0.06 0.02 0.07 0.24 0.17 0.33 0.73 0.83 0.91 0.91 1.28 0.80 0.60 0.35 0.12 0.00 0.00 0.00 0.00 0.00 0.00 0.01 0.00 0.01 0.00 0.00 0.00 0.00 0.00 0.00 0.00 0.01 0.15 0.15 0.12 0.16 0.16 0.25 0.07 0.16 0.31 0.38 0.26
0.10 0.10 0.09 0.07 0.04 0.02 0.04 0.08 0.09 0.27 0.59 0.85 0.73 1.17 2.09 1.10 0.28 0.06 0.03 0.01 0.00 0.00 0.01 0.01 0.02 0.03 0.03 0.02 0.00 0.00 0.00 0.00 0.00 0.00 0.00 0.10 0.18 0.18 0.25 0.48 0.63 0.41 0.14 0.26 0.47 0.48 0.09
0.10 0.11 0.09 0.07 0.04 0.02 0.03 0.04 0.07 0.35 0.41 0.46 0.39 0.47 0.66 0.61 0.26 0.02 0.01 0.01 0.00 0.00 0.01 0.03 0.04 0.03 0.05 0.02 0.01 0.00 0.00 0.00 0.00 0.00 0.04 0.26 0.29 0.33 0.35 0.29 0.83 0.51 0.19 0.24 0.42 0.13 0.09
0.09 0.11 0.08 0.07 0.03 0.01 0.02 0.03 0.09 0.38 0.37 0.35 0.31 0.23 0.09 0.03 0.02 0.01 0.01 0.00 0.00 0.00 0.01 0.02 0.03 0.04 0.05 0.03 0.01 0.00 0.00 0.00 0.00 0.00 0.08 0.29 0.30 0.39 0.35 0.16 0.30 0.31 0.08 0.09 0.05 0.02 0.03
0.09 0.08 0.10 0.07 0.02 0.01 0.01 0.03 0.07 0.29 0.48 0.47 0.47 0.24 0.05 0.06 0.01 0.01 0.00 0.00 0.00 0.00 0.00 0.01 0.04 0.08 0.03 0.02 0.01 0.01 0.00 0.00 0.00 0.01 0.08 0.20 0.27 0.49 0.48 0.27 0.16 0.26 0.09 0.03 0.02 0.01 0.04
0.07 0.07 0.10 0.05 0.01 0.01 0.01 0.03 0.06 0.23 0.53 0.65 0.47 0.33 0.07 0.10 0.02 0.00 0.00 0.02 0.02 0.01 0.01 0.01 0.02 0.05 0.01 0.02 0.03 0.01 0.00 0.00 0.00 0.00 0.01 0.05 0.20 0.38 0.45 0.44 0.47 0.38 0.23 0.08 0.07 0.10 0.15
0.07 0.09 0.09 0.04 0.01 0.01 0.01 0.02 0.05 0.15 0.27 0.46 0.32 0.36 0.08 0.01 0.01 0.00 0.01 0.03 0.04 0.05 0.02 0.02 0.04 0.04 0.05 0.09 0.08 0.02 0.00 0.00 0.00 0.00 0.00 0.00 0.06 0.17 0.16 0.18 0.20 0.08 0.13 0.19 0.12 0.12 0.07
0.07 0.09 0.08 0.03 0.02 0.01 0.00 0.01 0.03 0.11 0.16 0.49 0.34 0.38 0.09 0.00 0.00 0.00 0.00 0.01 0.03 0.03 0.03 0.06 0.05 0.04 0.06 0.14 0.14 0.04 0.00 0.00 0.00 0.00 0.00 0.00 0.00 0.09 0.06 0.08 0.00 0.01 0.04 0.03 0.01 0.03 0.01
0.06 0.07 0.06 0.03 0.01 0.01 0.01 0.01 0.03 0.12 0.14 0.33 0.42 0.26 0.03 0.00 0.00 0.00 0.00 0.00 0.00 0.01 0.03 0.07 0.08 0.09 0.10 0.16 0.20 0.04 0.00 0.00 0.00 0.00 0.00 0.00 0.01 0.02 0.04 0.06 0.00 0.00 0.00 0.00 0.00 0.01 0.00
0.05 0.04 0.05 0.03 0.02 0.01 0.01 0.00 0.02 0.13 0.16 0.21 0.39 0.20 0.09 0.01 0.00 0.00 0.00 0.00 0.00 0.00 0.01 0.04 0.06 0.12 0.18 0.17 0.15 0.05 0.00 0.00 0.00 0.00 0.00 0.00 0.00 0.00 0.00 0.00 0.00 0.00 0.00 0.00 0.00 0.00 0.00
0.04 0.04 0.04 0.02 0.01 0.01 0.00 0.00 0.01 0.07 0.15 0.14 0.32 0.08 0.05 0.01 0.00 0.00 0.00 0.00 0.00 0.00 0.01 0.07 0.07 0.13 0.18 0.12 0.11 0.07 0.02 0.00 0.00 0.00 0.00 0.00 0.00 0.00 0.00 0.00 0.00 0.00 0.00 0.00 0.00 0.00 0.00

GFSGBSN_prec_precacc12_033.txt.gz
Total_Precipitation_Accumulation
0.00 0.00 0.00 0.00 0.00 0.00 0.01 0.04 0.05 0.06 0.05 0.06 0.09 0.10 0.10 0.09 0.09 0.10 0.09 0.06 0.02 0.00 0.00 0.00 0.00 0.00 0.00 0.00 0.00 0.00 0.00 0.00 0.00 0.08 0.05 0.00 0.00 0.00 0.00 0.00 0.00 0.00 0.00 0.00 0.00 0.00 0.00
0.00 0.00 0.00 0.00 0.00 0.00 0.00 0.01 0.07 0.09 0.07 0.08 0.06 0.07 0.09 0.09 0.09 0.09 0.08 0.10 0.05 0.00 0.00 0.00 0.00 0.00 0.00 0.00 0.00 0.00 0.00 0.00 0.00 0.02 0.05 0.02 0.01 0.00 0.00 0.00 0.00 0.00 0.00 0.00 0.00 0.00 0.00
0.00 0.00 0.00 0.00 0.00 0.00 0.00 0.00 0.02 0.06 0.09 0.09 0.07 0.08 0.08 0.08 0.10 0.10 0.09 0.10 0.10 0.03 0.00 0.00 0.00 0.00 0.00 0.00 0.00 0.00 0.00 0.00 0.00 0.02 0.04 0.04 0.02 0.01 0.01 0.00 0.00 0.00 0.00 0.00 0.00 0.00 0.00
0.00 0.01 0.01 0.00 0.00 0.01 0.01 0.01 0.01 0.02 0.06 0.08 0.10 0.09 0.09 0.12 0.14 0.13 0.12 0.14 0.12 0.06 0.00 0.00 0.01 0.00 0.00 0.00 0.00 0.00 0.00 0.00 0.00 0.00 0.03 0.05 0.03 0.03 0.03 0.01 0.00 0.00 0.00 0.00 0.00 0.00 0.00
0.01 0.01 0.00 0.00 0.01 0.02 0.02 0.02 0.01 0.01 0.04 0.10 0.13 0.11 0.10 0.13 0.17 0.16 0.13 0.21 0.35 0.23 0.06 0.03 0.00 0.00 0.00 0.00 0.00 0.00 0.00 0.00 0.00 0.00 0.00 0.02 0.05 0.01 0.01 0.01 0.00 0.00 0.00 0.00 0.00 0.00 0.00
0.01 0.01 0.01 0.01 0.02 0.03 0.03 0.03 0.02 0.02 0.03 0.04 0.10 0.13 0.14 0.15 0.20 0.22 0.23 0.29 0.51 0.39 0.13 0.06 0.02 0.00 0.00 0.00 0.00 0.00 0.00 0.00 0.00 0.00 0.00 0.00 0.00 0.00 0.00 0.00 0.00 0.00 0.00 0.00 0.00 0.00 0.00
0.01 0.01 0.02 0.02 0.03 0.03 0.04 0.04 0.04 0.05 0.04 0.05 0.09 0.13 0.16 0.22 0.32 0.32 0.48 0.90 0.97 0.55 0.12 0.01 0.01 0.00 0.00 0.00 0.00 0.00 0.00 0.00 0.00 0.00 0.00 0.00 0.00 0.00 0.00 0.00 0.00 0.00 0.00 0.00 0.00 0.00 0.00
0.02 0.02 0.02 0.04 0.05 0.05 0.05 0.04 0.06 0.07 0.09 0.09 0.11 0.14 0.19 0.26 0.30 0.55 0.83 0.81 0.48 0.15 0.05 0.00 0.00 0.00 0.00 0.00 0.00 0.00 0.00 0.00 0.00 0.00 0.00 0.00 0.00 0.00 0.00 0.00 0.00 0.00 0.00 0.00 0.00 0.00 0.00
0.02 0.02 0.03 0.05 0.04 0.05 0.04 0.06 0.09 0.09 0.13 0.12 0.09 0.11 0.20 0.25 0.48 0.70 0.73 0.48 0.17 0.17 0.08 0.01 0.00 0.00 0.00 0.00 0.00 0.00 0.00 0.00 0.00 0.00 0.00 0.00 0.00 0.00 0.00 0.00 0.00 0.00 0.00 0.00 0.00 0.00 0.00
0.02 0.02 0.03 0.04 0.05 0.05 0.04 0.09 0.12 0.18 0.17 0.10 0.07 0.11 0.26 0.38 0.70 0.82 0.68 0.42 0.39 0.31 0.13 0.01 0.00 0.00 0.00 0.00 0.00 0.00 0.00 0.00 0.00 0.00 0.00 0.00 0.00 0.00 0.00 0.00 0.00 0.00 0.00 0.00 0.00 0.00 0.00
0.02 0.03 0.06 0.07 0.07 0.04 0.09 0.16 0.20 0.16 0.08 0.08 0.09 0.19 0.39 0.78 0.84 0.72 0.84 0.61 0.71 0.34 0.16 0.01 0.01 0.00 0.02 0.00 0.00 0.00 0.00 0.00 0.00 0.00 0.00 0.00 0.00 0.00 0.00 0.00 0.00 0.00 0.00 0.00 0.00 0.00 0.01
0.02 0.04 0.09 0.08 0.07 0.07 0.13 0.15 0.10 0.05 0.08 0.14 0.22 0.23 0.38 0.71 0.69 0.39 0.63 1.04 0.95 0.61 0.09 0.01 0.01 0.04 0.05 0.02 0.01 0.01 0.02 0.03 0.01 0.02 0.02 0.00 0.00 0.00 0.00 0.00 0.00 0.00 0.00 0.01 0.02 0.05 0.09
0.04 0.08 0.11 0.10 0.08 0.09 0.12 0.08 0.03 0.06 0.20 0.42 0.33 0.20 0.38 0.70 0.66 0.53 0.67 1.34 1.01 0.32 0.01 0.01 0.01 0.04 0.01 0.01 0.02 0.02 0.02 0.04 0.03 0.04 0.04 0.03 0.01 0.00 0.00 0.00 0.00 0.03 0.14 0.15 0.14 0.16 0.04
0.06 0.10 0.12 0.10 0.10 0.10 0.08 0.04 0.08 0.25 0.54 0.53 0.20 0.15 0.33 0.61 0.57 1.17 0.86 0.93 0.57 0.07 0.00 0.00 0.01 0.02 0.02 0.00 0.01 0.01 0.02 0.02 0.02 0.03 0.05 0.04 0.01 0.00 0.00 0.00 0.00 0.01 0.06 0.15 0.05 0.00 0.00
0.07 0.10 0.10 0.11 0.11 0.10 0.04 0.03 0.16 0.40 0.53 0.50 0.28 0.13 0.37 0.67 0.64 1.19 1.03 0.59 0.29 0.00 0.00 0.00 0.01 0.02 0.02 0.00 0.00 0.01 0.01 0.00 0.00 0.01 0.03 0.02 0.01 0.00 0.00 0.00 0.01 0.05 0.10 0.07 0.16 0.12 0.14
0.07 0.10 0.11 0.11 0.10 0.08 0.03 0.06 0.28 0.52 0.72 0.55 0.27 0.13 0.40 0.65 0.65 1.07 0.83 0.30 0.07 0.00 0.00 0.00 0.00 0.00 0.00 0.00 0.00 0.01 0.00 0.00 0.00 0.00 0.00 0.00 0.01 0.00 0.00 0.01 0.02 0.04 0.03 0.10 0.32 0.19 0.09
0.08 0.10 0.12 0.11 0.08 0.04 0.03 0.07 0.19 0.28 0.63 0.57 0.35 0.43 0.53 0.73 0.77 0.97 0.64 0.18 0.01 0.00 0.00 0.00 0.00 0.00 0.00 0.00 0.00 0.00 0.00 0.00 0.00 0.00 0.00 0.01 0.02 0.00 0.01 0.01 0.00 0.03 0.12 0.13 0.13 0.06 0.02
0.09 0.10 0.12 0.09 0.08 0.03 0.03 0.03 0.09 0.22 0.71 0.71 0.38 0.65 0.54 1.06 1.06 0.69 0.28 0.08 0.00 0.00 0.00 0.00 0.00 0.00 0.00 0.00 0.00 0.00 0.00 0.00 0.00 0.00 0.00 0.00 0.03 0.02 0.00 0.00 0.00 0.01 0.02 0.09 0.31 0.09 0.15
0.09 0.10 0.11 0.08 0.07 0.02 0.03 0.02 0.05 0.20 0.64 0.75 0.56 0.47 0.84 0.69 0.45 0.31 0.17 0.05 0.00 0.00 0.00 0.00 0.00 0.00 0.00 0.01 0.00 0.00 0.00 0.00 0.00 0.00 0.00 0.00 0.05 0.05 0.04 0.05 0.08 0.16 0.06 0.16 0.35 0.48 0.34
0.08 0.09 0.09 0.08 0.05 0.02 0.02 0.02 0.04 0.20 0.47 0.44 0.25 0.74 1.53 0.78 0.22 0.07 0.07 0.05 0.01 0.00 0.00 0.00 0.00 0.01 0.02 0.02 0.00 0.00 0.00 0.00 0.00 0.00 0.00 0.01 0.05 0.07 0.12 0.18 0.43 0.39 0.14 0.29 0.64 0.64 0.12
0.08 0.09 0.08 0.07 0.05 0.02 0.01 0.01 0.03 0.23 0.17 0.13 0.09 0.28 0.49 0.46 0.20 0.03 0.03 0.04 0.01 0.00 0.00 0.00 0.01 0.02 0.04 0.02 0.01 0.00 0.00 0.00 0.00 0.00 0.00 0.05 0.11 0.11 0.15 0.17 0.56 0.41 0.19 0.24 0.50 0.21 0.16
0.07 0.09 0.07 0.06 0.04 0.01 0.01 0.01 0.04 0.25 0.16 0.10 0.14 0.18 0.09 0.03 0.02 0.01 0.01 0.02 0.00 0.00 0.00 0.00 0.00 0.04 0.04 0.03 0.01 0.00 0.00 0.00 0.00 0.00 0.03 0.10 0.13 0.13 0.14 0.13 0.25 0.27 0.08 0.10 0.06 0.03 0.04
0.07 0.06 0.09 0.07 0.02 0.01 0.01 0.01 0.02 0.17 0.30 0.20 0.32 0.23 0.06 0.06 0.02 0.01 0.00 0.00 0.00 0.00 0.00 0.00 0.00 0.05 0.02 0.02 0.01 0.01 0.00 0.00 0.00 0.01 0.03 0.08 0.13 0.28 0.22 0.18 0.11 0.20 0.14 0.06 0.02 0.03 0.03
0.06 0.05 0.08 0.05 0.02 0.01 0.01 0.01 0.01 0.12 0.33 0.38 0.35 0.30 0.07 0.10 0.03 0.01 0.00 0.02 0.01 0.01 0.00 0.00 0.00 0.01 0.01 0.02 0.03 0.01 0.01 0.00 0.01 0.01 0.00 0.02 0.15 0.27 0.23 0.24 0.34 0.31 0.15 0.03 0.04 0.05 0.02
0.05 0.05 0.07 0.04 0.01 0.01 0.01 0.00 0.01 0.07 0.14 0.25 0.27 0.34 0.10 0.02 0.01 0.01 0.01 0.01 0.04 0.05 0.02 0.02 0.00 0.00 0.02 0.08 0.08 0.01 0.00 0.00 0.00 0.00 0.01 0.01 0.07 0.18 0.17 0.19 0.20 0.08 0.12 0.12 0.06 0.07 0.03
0.04 0.05 0.05 0.03 0.02 0.01 0.01 0.00 0.00 0.04 0.07 0.20 0.28 0.43 0.11 0.02 0.00 0.00 0.00 0.00 0.02 0.03 0.03 0.05 0.02 0.01 0.03 0.14 0.12 0.04 0.00 0.00 0.00 0.00 0.00 0.00 0.01 0.10 0.07 0.10 0.00 0.02 0.05 0.03 0.01 0.04 0.01
0.03 0.04 0.04 0.02 0.02 0.01 0.01 0.00 0.00 0.02 0.04 0.12 0.31 0.30 0.04 0.02 0.00 0.00 0.00 0.00 0.00 0.01 0.04 0.05 0.03 0.02 0.07 0.16 0.12 0.04 0.01 0.00 0.00 0.00 0.00 0.00 0.03 0.06 0.06 0.11 0.00 0.00 0.00 0.00 0.00 0.01 0.00
0.02 0.02 0.03 0.02 0.02 0.01 0.01 0.00 0.00 0.02 0.04 0.09 0.25 0.24 0.11 0.02 0.01 0.00 0.00 0.00 0.00 0.00 0.01 0.01 0.01 0.03 0.13 0.16 0.11 0.04 0.01 0.00 0.00 0.00 0.00 0.00 0.00 0.01 0.01 0.03 0.00 0.00 0.00 0.00 0.00 0.00 0.00
0.02 0.01 0.02 0.02 0.01 0.01 0.00 0.00 0.00 0.02 0.05 0.06 0.24 0.10 0.06 0.01 0.00 0.00 0.00 0.00 0.00 0.00 0.00 0.02 0.03 0.06 0.13 0.11 0.12 0.10 0.04 0.00 0.00 0.00 0.00 0.00 0.00 0.00 0.00 0.00 0.00 0.00 0.00 0.00 0.00 0.00 0.00

GFSGBSN_prec_precacc12_036.txt.gz
Total_Precipitation_Accumulation
0.00 0.00 0.00 0.00 0.00 0.00 0.00 0.00 0.00 0.01 0.02 0.04 0.06 0.06 0.08 0.09 0.09 0.10 0.09 0.07 0.10 0.09 0.02 0.00 0.00 0.00 0.00 0.00 0.00 0.00 0.00 0.00 0.00 0.14 0.07 0.00 0.00 0.00 0.00 0.00 0.00 0.00 0.00 0.00 0.00 0.00 0.00
0.00 0.00 0.00 0.00 0.00 0.00 0.00 0.00 0.00 0.00 0.01 0.03 0.03 0.04 0.04 0.07 0.09 0.09 0.08 0.10 0.10 0.14 0.06 0.00 0.00 0.00 0.00 0.00 0.00 0.00 0.00 0.00 0.00 0.03 0.10 0.03 0.00 0.00 0.00 0.00 0.00 0.00 0.00 0.00 0.00 0.00 0.00
0.00 0.01 0.01 0.00 0.00 0.00 0.01 0.01 0.01 0.00 0.01 0.01 0.04 0.05 0.05 0.05 0.09 0.10 0.09 0.10 0.13 0.12 0.07 0.01 0.00 0.00 0.00 0.00 0.00 0.00 0.00 0.00 0.00 0.02 0.09 0.05 0.01 0.00 0.00 0.00 0.00 0.00 0.00 0.00 0.00 0.00 0.00
0.01 0.01 0.01 0.00 0.01 0.02 0.02 0.02 0.02 0.02 0.01 0.01 0.02 0.06 0.05 0.06 0.10 0.12 0.12 0.14 0.12 0.15 0.15 0.04 0.01 0.00 0.00 0.00 0.00 0.00 0.00 0.00 0.00 0.01 0.05 0.09 0.04 0.03 0.02 0.01 0.00 0.00 0.00 0.00 0.00 0.00 0.00
0.01 0.01 0.01 0.01 0.02 0.02 0.02 0.03 0.03 0.03 0.02 0.02 0.02 0.04 0.07 0.08 0.12 0.15 0.13 0.21 0.33 0.29 0.32 0.11 0.01 0.00 0.00 0.00 0.00 0.00 0.00 0.00 0.00 0.00 0.01 0.07 0.07 0.01 0.01 0.01 0.00 0.00 0.00 0.00 0.00 0.00 0.00
0.01 0.01 0.02 0.03 0.03 0.03 0.05 0.06 0.06 0.04 0.04 0.05 0.04 0.05 0.09 0.10 0.14 0.19 0.23 0.27 0.48 0.61 0.57 0.19 0.02 0.00 0.00 0.00 0.00 0.00 0.00 0.00 0.00 0.00 0.02 0.06 0.02 0.00 0.00 0.00 0.00 0.00 0.00 0.00 0.00 0.00 0.00
0.03 0.02 0.03 0.03 0.04 0.05 0.07 0.08 0.05 0.06 0.06 0.09 0.08 0.06 0.09 0.18 0.28 0.33 0.51 0.89 1.00 0.97 0.64 0.15 0.01 0.00 0.00 0.00 0.00 0.00 0.00 0.00 0.00 0.01 0.00 0.01 0.01 0.00 0.00 0.00 0.00 0.00 0.00 0.00 0.00 0.00 0.00
0.03 0.02 0.02 0.04 0.06 0.07 0.07 0.06 0.07 0.08 0.11 0.12 0.13 0.07 0.09 0.18 0.24 0.53 0.86 0.83 0.58 0.51 0.41 0.05 0.00 0.00 0.00 0.00 0.00 0.00 0.00 0.00 0.00 0.00 0.00 0.00 0.00 0.00 0.00 0.00 0.00 0.00 0.00 0.00 0.00 0.00 0.00
0.02 0.02 0.03 0.05 0.06 0.07 0.06 0.08 0.10 0.12 0.14 0.13 0.09 0.06 0.08 0.13 0.30 0.60 0.73 0.49 0.22 0.50 0.47 0.10 0.00 0.00 0.00 0.00 0.00 0.00 0.00 0.00 0.00 0.00 0.00 0.00 0.00 0.00 0.00 0.00 0.00 0.00 0.00 0.00 0.00 0.00 0.00
0.02 0.02 0.05 0.06 0.07 0.06 0.06 0.11 0.11 0.16 0.15 0.07 0.06 0.08 0.14 0.22 0.29 0.65 0.63 0.44 0.47 0.73 0.44 0.16 0.05 0.00 0.00 0.00 0.00 0.00 0.00 0.00 0.00 0.00 0.00 0.00 0.00 0.00 0.00 0.00 0.00 0.00 0.00 0.00 0.00 0.00 0.00
0.02 0.03 0.07 0.08 0.08 0.06 0.09 0.12 0.13 0.12 0.05 0.06 0.09 0.17 0.23 0.37 0.53 0.62 0.86 0.66 0.94 0.81 0.39 0.09 0.03 0.00 0.01 0.00 0.00 0.00 0.00 0.00 0.00 0.00 0.00 0.00 0.00 0.00 0.00 0.00 0.00 0.00 0.00 0.00 0.00 0.00 0.01
0.02 0.05 0.09 0.08 0.08 0.07 0.10 0.10 0.08 0.03 0.06 0.14 0.23 0.23 0.21 0.22 0.38 0.33 0.66 1.18 1.44 1.00 0.33 0.11 0.04 0.04 0.04 0.01 0.01 0.01 0.01 0.02 0.00 0.01 0.01 0.00 0.00 0.00 0.00 0.00 0.00 0.00 0.00 0.01 0.02 0.04 0.07
0.03 0.07 0.09 0.09 0.08 0.08 0.09 0.07 0.02 0.04 0.17 0.41 0.33 0.16 0.16 0.15 0.29 0.46 0.72 1.54 1.45 0.53 0.12 0.03 0.02 0.04 0.02 0.01 0.02 0.01 0.03 0.03 0.01 0.01 0.01 0.01 0.00 0.00 0.00 0.00 0.00 0.02 0.09 0.07 0.08 0.11 0.03
0.04 0.08 0.10 0.09 0.10 0.08 0.06 0.04 0.02 0.11 0.38 0.48 0.20 0.11 0.18 0.11 0.20 1.10 0.88 1.07 0.82 0.17 0.05 0.00 0.01 0.03 0.02 0.00 0.01 0.01 0.02 0.02 0.01 0.01 0.02 0.01 0.00 0.00 0.00 0.00 0.00 0.01 0.04 0.07 0.02 0.00 0.00
0.06 0.08 0.09 0.10 0.10 0.09 0.04 0.02 0.03 0.18 0.44 0.44 0.29 0.10 0.18 0.23 0.26 1.10 1.05 0.63 0.53 0.09 0.00 0.01 0.02 0.03 0.03 0.01 0.01 0.01 0.01 0.00 0.00 0.01 0.01 0.01 0.00 0.00 0.00 0.00 0.00 0.02 0.04 0.02 0.08 0.05 0.07
0.06 0.08 0.09 0.11 0.09 0.08 0.03 0.02 0.02 0.15 0.47 0.46 0.29 0.10 0.16 0.24 0.30 1.00 0.84 0.32 0.26 0.05 0.00 0.00 0.01 0.01 0.01 0.01 0.00 0.01 0.00 0.00 0.00 0.00 0.00 0.00 0.00 0.00 0.00 0.00 0.01 0.02 0.01 0.05 0.14 0.09 0.05
0.07 0.08 0.11 0.10 0.08 0.05 0.03 0.02 0.03 0.08 0.38 0.54 0.32 0.33 0.30 0.28 0.40 0.86 0.62 0.19 0.07 0.05 0.00 0.00 0.00 0.00 0.00 0.00 0.00 0.00 0.00 0.00 0.00 0.00 0.00 0.00 0.01 0.00 0.01 0.00 0.00 0.01 0.05 0.08 0.09 0.04 0.02
0.06 0.07 0.11 0.07 0.08 0.04 0.03 0.01 0.03 0.10 0.37 0.68 0.33 0.56 0.26 0.40 0.69 0.61 0.28 0.10 0.08 0.06 0.00 0.00 0.00 0.00 0.00 0.00 0.00 0.00 0.00 0.00 0.00 0.00 0.00 0.00 0.02 0.01 0.00 0.00 0.00 0.01 0.01 0.08 0.31 0.09 0.16
0.06 0.07 0.09 0.06 0.07 0.02 0.02 0.01 0.02 0.13 0.36 0.66 0.48 0.33 0.42 0.30 0.30 0.25 0.26 0.12 0.05 0.01 0.00 0.00 0.00 0.00 0.00 0.00 0.00 0.00 0.00 0.00 0.00 0.00 0.00 0.00 0.02 0.01 0.00 0.01 0.03 0.07 0.03 0.15 0.36 0.54 0.38
0.05 0.06 0.09 0.06 0.05 0.02 0.01 0.00 0.02 0.13 0.33 0.31 0.15 0.35 0.74 0.25 0.14 0.12 0.19 0.09 0.02 0.01 0.00 0.00 0.00 0.00 0.00 0.00 0.00 0.00 0.00 0.00 0.00 0.00 0.00 0.00 0.00 0.01 0.04 0.06 0.24 0.28 0.09 0.24 0.66 0.72 0.14
0.05 0.05 0.07 0.06 0.05 0.02 0.01 0.00 0.02 0.18 0.13 0.10 0.05 0.16 0.25 0.17 0.13 0.09 0.09 0.06 0.02 0.01 0.00 0.00 0.00 0.00 0.00 0.01 0.01 0.00 0.00 0.00 0.00 0.00 0.00 0.00 0.02 0.03 0.04 0.05 0.21 0.21 0.13 0.18 0.49 0.24 0.26
0.04 0.05 0.04 0.05 0.03 0.01 0.01 0.01 0.02 0.17 0.09 0.05 0.06 0.16 0.08 0.02 0.02 0.02 0.03 0.05 0.02 0.00 0.00 0.00 0.00 0.00 0.00 0.01 0.00 0.00 0.00 0.00 0.00 0.00 0.00 0.02 0.03 0.03 0.02 0.03 0.14 0.17 0.05 0.09 0.06 0.03 0.05
0.04 0.04 0.03 0.04 0.02 0.01 0.01 0.01 0.01 0.09 0.10 0.09 0.11 0.19 0.06 0.04 0.01 0.01 0.00 0.00 0.00 0.00 0.00 0.00 0.00 0.00 0.00 0.00 0.01 0.01 0.00 0.00 0.00 0.00 0.01 0.03 0.05 0.13 0.06 0.02 0.09 0.17 0.13 0.06 0.02 0.04 0.05
0.02 0.02 0.03 0.03 0.01 0.02 0.01 0.00 0.00 0.04 0.15 0.18 0.24 0.23 0.04 0.07 0.02 0.00 0.00 0.01 0.01 0.00 0.00 0.00 0.00 0.00 0.00 0.01 0.01 0.01 0.01 0.00 0.01 0.01 0.00 0.02 0.05 0.13 0.09 0.10 0.24 0.23 0.14 0.03 0.04 0.05 0.02
0.02 0.02 0.02 0.03 0.01 0.01 0.01 0.00 0.00 0.01 0.08 0.13 0.21 0.28 0.08 0.03 0.01 0.00 0.00 0.01 0.03 0.01 0.01 0.02 0.01 0.00 0.01 0.04 0.06 0.01 0.00 0.00 0.00 0.00 0.01 0.01 0.03 0.10 0.12 0.12 0.12 0.07 0.10 0.10 0.06 0.05 0.02
0.02 0.01 0.01 0.01 0.02 0.01 0.01 0.00 0.00 0.00 0.04 0.16 0.23 0.40 0.10 0.03 0.01 0.00 0.00 0.00 0.01 0.01 0.02 0.04 0.02 0.00 0.01 0.09 0.10 0.04 0.00 0.00 0.01 0.00 0.00 0.01 0.01 0.08 0.06 0.09 0.00 0.02 0.05 0.03 0.01 0.02 0.00
0.01 0.01 0.01 0.01 0.01 0.01 0.01 0.00 0.00 0.00 0.02 0.10 0.15 0.26 0.04 0.03 0.01 0.00 0.00 0.00 0.00 0.01 0.03 0.05 0.03 0.01 0.04 0.12 0.11 0.03 0.01 0.00 0.00 0.00 0.00 0.01 0.04 0.07 0.07 0.13 0.00 0.00 0.00 0.00 0.00 0.01 0.00
0.01 0.01 0.01 0.01 0.01 0.01 0.01 0.00 0.00 0.00 0.02 0.07 0.19 0.22 0.11 0.02 0.02 0.00 0.00 0.00 0.00 0.00 0.01 0.01 0.01 0.01 0.05 0.11 0.10 0.02 0.02 0.01 0.00 0.00 0.00 0.00 0.00 0.01 0.02 0.04 0.00 0.00 0.00 0.00 0.00 0.00 0.00
0.01 0.01 0.01 0.01 0.01 0.01 0.00 0.00 0.00 0.00 0.02 0.04 0.15 0.07 0.05 0.00 0.01 0.00 0.00 0.00 0.00 0.01 0.01 0.02 0.02 0.01 0.03 0.08 0.12 0.09 0.04 0.01 0.00 0.00 0.00 0.00 0.00 0.00 0.00 0.00 0.00 0.00 0.00 0.00 0.00 0.00 0.00

GFSGBSN_prec_precacc12_039.txt.gz
Total_Precipitation_Accumulation
0.00 0.00 0.00 0.01 0.00 0.00 0.00 0.01 0.01 0.01 0.00 0.00 0.01 0.03 0.03 0.03 0.06 0.10 0.09 0.07 0.11 0.11 0.09 0.05 0.01 0.00 0.00 0.00 0.00 0.00 0.00 0.02 0.05 0.18 0.09 0.01 0.00 0.00 0.00 0.00 0.00 0.00 0.00 0.00 0.00 0.00 0.00
0.01 0.01 0.01 0.01 0.00 0.00 0.02 0.02 0.01 0.01 0.01 0.01 0.01 0.01 0.02 0.02 0.03 0.07 0.08 0.10 0.10 0.15 0.13 0.09 0.01 0.00 0.00 0.00 0.00 0.00 0.00 0.00 0.00 0.04 0.12 0.06 0.01 0.00 0.00 0.00 0.00 0.00 0.00 0.00 0.00 0.00 0.00
0.02 0.01 0.01 0.01 0.01 0.03 0.03 0.02 0.02 0.03 0.04 0.03 0.02 0.01 0.01 0.03 0.03 0.06 0.09 0.10 0.13 0.12 0.13 0.16 0.04 0.00 0.00 0.00 0.00 0.00 0.00 0.00 0.00 0.02 0.11 0.09 0.02 0.00 0.00 0.00 0.00 0.00 0.00 0.00 0.00 0.00 0.00
0.01 0.01 0.02 0.01 0.02 0.03 0.03 0.04 0.05 0.05 0.04 0.04 0.03 0.02 0.01 0.04 0.05 0.06 0.10 0.14 0.12 0.15 0.20 0.19 0.06 0.00 0.00 0.00 0.00 0.00 0.00 0.00 0.00 0.01 0.06 0.16 0.04 0.01 0.01 0.01 0.00 0.00 0.00 0.00 0.00 0.00 0.00
0.02 0.02 0.02 0.02 0.03 0.04 0.04 0.05 0.06 0.05 0.04 0.05 0.05 0.03 0.02 0.05 0.08 0.08 0.09 0.19 0.32 0.26 0.32 0.40 0.13 0.01 0.00 0.00 0.00 0.00 0.00 0.00 0.00 0.00 0.01 0.14 0.14 0.03 0.02 0.01 0.00 0.00 0.00 0.00 0.00 0.00 0.00
0.02 0.03 0.03 0.03 0.05 0.06 0.06 0.08 0.08 0.06 0.06 0.08 0.08 0.06 0.04 0.04 0.08 0.13 0.18 0.25 0.47 0.58 0.60 0.67 0.22 0.03 0.00 0.00 0.00 0.00 0.00 0.00 0.00 0.01 0.04 0.14 0.05 0.03 0.01 0.01 0.00 0.00 0.00 0.00 0.00 0.00 0.00
0.03 0.02 0.03 0.04 0.07 0.07 0.09 0.11 0.08 0.08 0.08 0.12 0.11 0.10 0.06 0.08 0.15 0.24 0.47 0.87 1.00 0.99 0.77 0.48 0.14 0.01 0.00 0.00 0.00 0.00 0.00 0.00 0.00 0.01 0.01 0.05 0.02 0.00 0.00 0.00 0.00 0.00 0.00 0.00 0.00 0.00 0.00
0.03 0.03 0.02 0.06 0.08 0.08 0.09 0.09 0.09 0.09 0.11 0.12 0.12 0.06 0.06 0.08 0.11 0.25 0.71 0.83 0.59 0.55 0.57 0.17 0.04 0.00 0.00 0.00 0.00 0.00 0.00 0.00 0.00 0.01 0.00 0.01 0.01 0.00 0.00 0.00 0.00 0.00 0.00 0.00 0.00 0.00 0.00
0.03 0.02 0.04 0.06 0.07 0.08 0.07 0.09 0.11 0.11 0.12 0.09 0.07 0.04 0.08 0.11 0.07 0.12 0.53 0.48 0.23 0.56 0.67 0.30 0.11 0.01 0.00 0.00 0.00 0.00 0.00 0.00 0.00 0.00 0.00 0.00 0.00 0.00 0.00 0.00 0.00 0.00 0.00 0.00 0.00 0.00 0.00
0.03 0.02 0.06 0.07 0.07 0.07 0.07 0.11 0.09 0.10 0.09 0.05 0.05 0.07 0.15 0.22 0.11 0.16 0.36 0.44 0.48 0.86 0.63 0.33 0.21 0.03 0.00 0.00 0.00 0.00 0.00 0.00 0.00 0.00 0.00 0.00 0.00 0.00 0.00 0.00 0.00 0.00 0.00 0.00 0.00 0.00 0.00
0.02 0.03 0.07 0.07 0.08 0.07 0.09 0.10 0.09 0.08 0.03 0.05 0.09 0.18 0.24 0.33 0.32 0.16 0.51 0.64 0.97 1.00 0.54 0.19 0.12 0.01 0.00 0.00 0.00 0.00 0.00 0.00 0.00 0.00 0.00 0.00 0.00 0.00 0.00 0.00 0.00 0.00 0.00 0.00 0.00 0.00 0.01
0.02 0.05 0.08 0.08 0.08 0.08 0.10 0.09 0.08 0.02 0.03 0.12 0.23 0.24 0.24 0.21 0.17 0.03 0.35 1.09 1.54 1.23 0.50 0.31 0.12 0.03 0.03 0.01 0.01 0.01 0.01 0.01 0.00 0.00 0.00 0.00 0.00 0.00 0.00 0.00 0.00 0.00 0.00 0.00 0.01 0.02 0.03
0.02 0.08 0.09 0.08 0.08 0.08 0.08 0.07 0.04 0.01 0.06 0.23 0.28 0.17 0.19 0.16 0.06 0.04 0.42 1.34 1.52 0.68 0.31 0.11 0.05 0.04 0.02 0.02 0.02 0.01 0.02 0.02 0.01 0.01 0.01 0.00 0.00 0.00 0.00 0.00 0.00 0.01 0.03 0.02 0.03 0.06 0.01
0.04 0.08 0.10 0.08 0.09 0.07 0.06 0.05 0.01 0.01 0.09 0.37 0.16 0.11 0.19 0.14 0.05 0.19 0.53 0.97 0.89 0.27 0.17 0.03 0.02 0.03 0.02 0.01 0.02 0.01 0.02 0.02 0.00 0.00 0.01 0.00 0.00 0.00 0.00 0.00 0.00 0.01 0.01 0.01 0.00 0.00 0.00
0.05 0.08 0.09 0.09 0.09 0.09 0.04 0.03 0.00 0.02 0.16 0.34 0.26 0.09 0.26 0.30 0.10 0.31 0.66 0.57 0.72 0.29 0.04 0.03 0.05 0.06 0.04 0.01 0.01 0.01 0.01 0.00 0.00 0.00 0.00 0.01 0.00 0.00 0.00 0.00 0.00 0.01 0.02 0.01 0.04 0.01 0.02
0.05 0.08 0.08 0.09 0.07 0.08 0.04 0.02 0.00 0.03 0.21 0.40 0.28 0.09 0.25 0.28 0.08 0.32 0.57 0.34 0.41 0.25 0.02 0.01 0.05 0.03 0.02 0.01 0.01 0.01 0.00 0.00 0.00 0.00 0.00 0.00 0.00 0.00 0.00 0.00 0.00 0.01 0.01 0.03 0.08 0.02 0.01
0.06 0.06 0.09 0.07 0.06 0.06 0.04 0.01 0.00 0.03 0.20 0.46 0.28 0.30 0.30 0.18 0.09 0.39 0.41 0.20 0.24 0.16 0.03 0.01 0.00 0.00 0.00 0.00 0.00 0.00 0.00 0.00 0.00 0.00 0.00 0.00 0.00 0.00 0.00 0.00 0.00 0.00 0.02 0.04 0.07 0.03 0.02
0.04 0.06 0.09 0.05 0.05 0.04 0.03 0.01 0.00 0.06 0.20 0.38 0.26 0.53 0.21 0.10 0.24 0.27 0.24 0.12 0.27 0.19 0.01 0.00 0.00 0.00 0.00 0.00 0.00 0.00 0.00 0.00 0.00 0.00 0.00 0.00 0.01 0.01 0.00 0.00 0.00 0.00 0.00 0.05 0.25 0.08 0.14
0.04 0.05 0.07 0.05 0.04 0.03 0.02 0.00 0.00 0.08 0.20 0.47 0.33 0.30 0.24 0.20 0.16 0.14 0.25 0.18 0.14 0.03 0.01 0.01 0.00 0.00 0.00 0.00 0.00 0.00 0.00 0.00 0.00 0.00 0.00 0.00 0.01 0.00 0.00 0.00 0.01 0.01 0.00 0.04 0.19 0.40 0.33
0.04 0.04 0.05 0.04 0.04 0.02 0.01 0.00 0.00 0.05 0.14 0.21 0.13 0.24 0.20 0.12 0.10 0.21 0.26 0.23 0.16 0.04 0.01 0.00 0.00 0.00 0.00 0.00 0.00 0.00 0.00 0.00 0.00 0.00 0.00 0.00 0.00 0.00 0.00 0.00 0.05 0.08 0.04 0.14 0.44 0.56 0.12
0.04 0.03 0.04 0.03 0.03 0.02 0.01 0.00 0.00 0.03 0.06 0.08 0.04 0.05 0.06 0.04 0.09 0.17 0.13 0.09 0.04 0.01 0.00 0.00 0.00 0.00 0.00 0.00 0.00 0.00 0.00 0.00 0.00 0.00 0.00 0.00 0.01 0.00 0.00 0.00 0.00 0.03 0.03 0.09 0.35 0.20 0.31
0.03 0.03 0.02 0.02 0.02 0.02 0.01 0.00 0.00 0.02 0.02 0.03 0.03 0.08 0.05 0.01 0.02 0.03 0.05 0.08 0.03 0.00 0.00 0.00 0.00 0.00 0.00 0.00 0.00 0.00 0.00 0.00 0.00 0.00 0.00 0.01 0.01 0.01 0.00 0.00 0.01 0.07 0.02 0.05 0.04 0.03 0.06
0.02 0.03 0.01 0.02 0.02 0.02 0.02 0.00 0.00 0.01 0.03 0.03 0.03 0.12 0.05 0.01 0.01 0.01 0.01 0.00 0.01 0.00 0.00 0.00 0.00 0.00 0.00 0.00 0.00 0.00 0.00 0.00 0.00 0.00 0.00 0.01 0.02 0.05 0.02 0.00 0.01 0.09 0.11 0.04 0.02 0.04 0.06
0.01 0.01 0.01 0.01 0.01 0.01 0.01 0.00 0.00 0.00 0.05 0.09 0.10 0.08 0.03 0.02 0.01 0.00 0.00 0.00 0.00 0.00 0.00 0.00 0.00 0.00 0.00 0.00 0.00 0.01 0.01 0.00 0.01 0.01 0.00 0.01 0.02 0.04 0.02 0.03 0.11 0.16 0.12 0.02 0.04 0.05 0.02
0.01 0.01 0.01 0.01 0.01 0.01 0.01 0.00 0.00 0.00 0.02 0.04 0.14 0.13 0.05 0.02 0.00 0.00 0.00 0.00 0.01 0.00 0.00 0.01 0.00 0.00 0.00 0.01 0.02 0.01 0.00 0.00 0.00 0.00 0.01 0.01 0.03 0.05 0.04 0.04 0.05 0.06 0.05 0.07 0.05 0.03 0.02
0.02 0.01 0.01 0.01 0.01 0.01 0.00 0.00 0.00 0.00 0.01 0.05 0.15 0.24 0.05 0.03 0.01 0.00 0.00 0.00 0.00 0.00 0.00 0.01 0.01 0.00 0.01 0.04 0.04 0.03 0.00 0.00 0.01 0.00 0.00 0.01 0.02 0.06 0.03 0.06 0.00 0.02 0.04 0.01 0.00 0.02 0.00
0.02 0.01 0.01 0.01 0.01 0.01 0.01 0.00 0.00 0.00 0.01 0.04 0.12 0.17 0.02 0.04 0.02 0.00 0.00 0.00 0.00 0.00 0.01 0.03 0.01 0.01 0.02 0.04 0.04 0.02 0.01 0.00 0.00 0.00 0.00 0.02 0.05 0.08 0.07 0.12 0.00 0.00 0.00 0.00 0.00 0.01 0.00
0.01 0.01 0.01 0.01 0.01 0.01 0.01 0.00 0.00 0.00 0.00 0.04 0.12 0.17 0.06 0.03 0.02 0.00 0.00 0.00 0.00 0.00 0.01 0.00 0.01 0.01 0.02 0.03 0.03 0.02 0.02 0.01 0.00 0.00 0.00 0.00 0.01 0.02 0.03 0.05 0.00 0.00 0.00 0.00 0.00 0.00 0.00
0.02 0.01 0.01 0.01 0.02 0.01 0.01 0.00 0.00 0.00 0.00 0.02 0.11 0.07 0.03 0.01 0.02 0.00 0.00 0.00 0.00 0.01 0.01 0.00 0.02 0.00 0.00 0.02 0.06 0.09 0.04 0.01 0.00 0.00 0.00 0.00 0.00 0.00 0.00 0.00 0.00 0.00 0.00 0.00 0.00 0.00 0.00

GFSGBSN_prec_precacc12_042.txt.gz
Total_Precipitation_Accumulation
0.01 0.02 0.01 0.01 0.00 0.01 0.02 0.03 0.02 0.01 0.02 0.04 0.04 0.04 0.02 0.02 0.01 0.01 0.06 0.07 0.11 0.11 0.10 0.08 0.17 0.06 0.00 0.00 0.00 0.00 0.00 0.03 0.08 0.20 0.08 0.01 0.00 0.00 0.00 0.00 0.00 0.00 0.00 0.00 0.00 0.00 0.00
0.02 0.01 0.01 0.02 0.01 0.02 0.04 0.03 0.02 0.03 0.04 0.04 0.05 0.04 0.03 0.02 0.01 0.02 0.03 0.10 0.10 0.15 0.13 0.11 0.15 0.09 0.01 0.00 0.00 0.00 0.00 0.03 0.05 0.07 0.11 0.06 0.01 0.00 0.00 0.00 0.00 0.00 0.00 0.00 0.00 0.00 0.00
0.02 0.02 0.03 0.02 0.01 0.03 0.04 0.03 0.04 0.05 0.06 0.04 0.05 0.04 0.03 0.04 0.03 0.02 0.03 0.09 0.13 0.13 0.13 0.17 0.23 0.08 0.01 0.00 0.00 0.00 0.00 0.02 0.02 0.04 0.10 0.08 0.02 0.00 0.00 0.00 0.00 0.00 0.00 0.00 0.00 0.00 0.00
0.01 0.03 0.03 0.02 0.03 0.04 0.04 0.05 0.06 0.06 0.06 0.06 0.06 0.04 0.01 0.04 0.05 0.02 0.03 0.08 0.12 0.15 0.20 0.20 0.31 0.16 0.01 0.00 0.00 0.00 0.00 0.00 0.00 0.01 0.06 0.18 0.05 0.01 0.01 0.00 0.00 0.00 0.00 0.00 0.00 0.00 0.00
0.03 0.03 0.02 0.03 0.04 0.06 0.06 0.06 0.08 0.07 0.06 0.08 0.08 0.04 0.03 0.08 0.07 0.03 0.02 0.05 0.28 0.25 0.31 0.40 0.47 0.13 0.01 0.00 0.00 0.00 0.00 0.00 0.00 0.00 0.03 0.20 0.21 0.05 0.01 0.01 0.00 0.00 0.00 0.00 0.00 0.00 0.00
0.02 0.02 0.03 0.04 0.06 0.07 0.07 0.09 0.09 0.07 0.08 0.11 0.10 0.05 0.06 0.07 0.05 0.06 0.06 0.08 0.37 0.53 0.58 0.73 0.66 0.18 0.00 0.00 0.00 0.00 0.00 0.00 0.00 0.03 0.11 0.22 0.19 0.17 0.03 0.01 0.00 0.00 0.00 0.00 0.00 0.00 0.00
0.03 0.03 0.03 0.05 0.07 0.06 0.08 0.10 0.08 0.08 0.09 0.13 0.10 0.08 0.05 0.08 0.13 0.12 0.13 0.30 0.83 0.95 0.76 0.58 0.34 0.08 0.00 0.00 0.00 0.00 0.00 0.00 0.01 0.06 0.02 0.08 0.04 0.05 0.05 0.01 0.00 0.00 0.00 0.00 0.00 0.00 0.00
0.03 0.03 0.02 0.06 0.07 0.07 0.09 0.09 0.08 0.09 0.11 0.10 0.10 0.05 0.05 0.08 0.11 0.07 0.13 0.42 0.54 0.56 0.57 0.25 0.18 0.03 0.00 0.00 0.00 0.00 0.00 0.00 0.01 0.02 0.01 0.02 0.02 0.00 0.01 0.00 0.00 0.00 0.00 0.00 0.00 0.00 0.00
0.03 0.01 0.04 0.07 0.07 0.08 0.09 0.09 0.10 0.10 0.09 0.08 0.05 0.03 0.08 0.12 0.10 0.03 0.08 0.22 0.22 0.56 0.68 0.33 0.30 0.08 0.00 0.00 0.00 0.00 0.00 0.00 0.00 0.01 0.00 0.00 0.00 0.00 0.00 0.00 0.00 0.00 0.00 0.00 0.00 0.00 0.00
0.02 0.01 0.06 0.07 0.07 0.07 0.07 0.10 0.09 0.09 0.07 0.03 0.01 0.07 0.15 0.24 0.12 0.09 0.09 0.19 0.41 0.87 0.68 0.38 0.41 0.11 0.00 0.00 0.00 0.00 0.00 0.00 0.00 0.01 0.00 0.00 0.00 0.00 0.00 0.00 0.00 0.00 0.00 0.00 0.00 0.00 0.00
0.02 0.03 0.08 0.07 0.07 0.06 0.08 0.10 0.08 0.07 0.02 0.01 0.04 0.15 0.23 0.35 0.36 0.11 0.23 0.39 0.78 0.99 0.60 0.24 0.26 0.09 0.00 0.00 0.00 0.01 0.00 0.00 0.00 0.00 0.00 0.00 0.00 0.00 0.00 0.00 0.00 0.00 0.00 0.00 0.00 0.00 0.00
0.01 0.05 0.08 0.07 0.06 0.06 0.09 0.09 0.07 0.03 0.01 0.04 0.08 0.16 0.27 0.25 0.17 0.05 0.09 0.59 1.16 1.19 0.67 0.49 0.28 0.08 0.02 0.01 0.00 0.01 0.01 0.00 0.00 0.00 0.00 0.00 0.00 0.00 0.00 0.00 0.00 0.00 0.00 0.00 0.00 0.01 0.01
0.01 0.06 0.07 0.06 0.06 0.06 0.08 0.06 0.04 0.01 0.04 0.07 0.15 0.11 0.21 0.20 0.12 0.03 0.15 0.74 1.08 0.71 0.57 0.27 0.13 0.03 0.02 0.02 0.01 0.01 0.02 0.01 0.00 0.01 0.01 0.00 0.00 0.00 0.00 0.00 0.00 0.00 0.01 0.00 0.01 0.02 0.00
0.02 0.06 0.07 0.06 0.06 0.06 0.06 0.05 0.01 0.01 0.04 0.11 0.12 0.12 0.19 0.17 0.06 0.03 0.12 0.55 0.68 0.43 0.36 0.11 0.02 0.03 0.02 0.01 0.02 0.01 0.01 0.01 0.00 0.00 0.00 0.00 0.00 0.00 0.00 0.00 0.00 0.00 0.00 0.00 0.00 0.00 0.00
0.03 0.05 0.06 0.06 0.06 0.07 0.04 0.03 0.01 0.02 0.08 0.13 0.22 0.08 0.25 0.30 0.10 0.08 0.12 0.28 0.75 0.55 0.20 0.07 0.08 0.08 0.07 0.01 0.02 0.02 0.01 0.00 0.00 0.00 0.00 0.00 0.00 0.00 0.00 0.00 0.00 0.00 0.00 0.00 0.01 0.00 0.00
0.03 0.05 0.06 0.06 0.06 0.05 0.03 0.02 0.00 0.04 0.12 0.19 0.21 0.08 0.25 0.26 0.07 0.09 0.17 0.20 0.47 0.43 0.08 0.01 0.10 0.05 0.03 0.01 0.01 0.01 0.01 0.00 0.00 0.00 0.00 0.00 0.00 0.00 0.00 0.00 0.00 0.00 0.00 0.01 0.03 0.01 0.00
0.04 0.04 0.06 0.05 0.04 0.03 0.03 0.01 0.00 0.04 0.12 0.12 0.14 0.16 0.24 0.14 0.03 0.14 0.18 0.19 0.32 0.24 0.13 0.02 0.00 0.00 0.00 0.00 0.00 0.00 0.00 0.00 0.00 0.00 0.00 0.00 0.00 0.00 0.00 0.00 0.00 0.00 0.01 0.01 0.02 0.01 0.01
0.03 0.04 0.06 0.04 0.03 0.02 0.02 0.00 0.00 0.06 0.15 0.18 0.12 0.35 0.14 0.07 0.09 0.12 0.16 0.20 0.45 0.33 0.03 0.00 0.00 0.00 0.00 0.00 0.00 0.00 0.00 0.00 0.00 0.00 0.00 0.00 0.00 0.00 0.00 0.00 0.00 0.00 0.00 0.01 0.07 0.01 0.06
0.03 0.03 0.04 0.03 0.02 0.01 0.01 0.00 0.00 0.04 0.12 0.20 0.12 0.13 0.13 0.17 0.10 0.06 0.20 0.22 0.19 0.05 0.02 0.01 0.00 0.00 0.00 0.00 0.00 0.00 0.00 0.00 0.00 0.00 0.00 0.00 0.00 0.00 0.00 0.00 0.00 0.00 0.00 0.00 0.06 0.20 0.14
0.03 0.03 0.04 0.02 0.02 0.02 0.01 0.00 0.00 0.01 0.07 0.09 0.06 0.14 0.10 0.04 0.07 0.20 0.38 0.44 0.25 0.05 0.01 0.00 0.00 0.00 0.00 0.00 0.00 0.00 0.00 0.00 0.00 0.00 0.00 0.00 0.00 0.00 0.00 0.00 0.01 0.00 0.00 0.02 0.23 0.33 0.07
0.02 0.02 0.02 0.01 0.02 0.01 0.01 0.00 0.00 0.00 0.01 0.05 0.04 0.02 0.02 0.02 0.08 0.16 0.14 0.09 0.04 0.02 0.00 0.00 0.00 0.00 0.00 0.00 0.00 0.00 0.00 0.00 0.00 0.00 0.00 0.00 0.01 0.00 0.00 0.00 0.00 0.00 0.00 0.00 0.16 0.13 0.26
0.02 0.02 0.01 0.01 0.01 0.01 0.01 0.00 0.00 0.00 0.00 0.00 0.01 0.02 0.01 0.01 0.02 0.03 0.05 0.08 0.03 0.00 0.00 0.00 0.00 0.00 0.00 0.00 0.00 0.00 0.00 0.00 0.00 0.00 0.00 0.01 0.01 0.00 0.00 0.00 0.00 0.00 0.00 0.02 0.02 0.02 0.05
0.01 0.02 0.01 0.01 0.01 0.01 0.01 0.00 0.00 0.00 0.01 0.02 0.00 0.00 0.03 0.01 0.00 0.01 0.01 0.00 0.01 0.00 0.00 0.00 0.00 0.00 0.00 0.00 0.00 0.00 0.00 0.00 0.00 0.00 0.00 0.01 0.01 0.01 0.00 0.00 0.00 0.03 0.06 0.03 0.01 0.04 0.06
0.01 0.02 0.01 0.00 0.01 0.01 0.01 0.00 0.00 0.00 0.02 0.03 0.02 0.02 0.02 0.01 0.01 0.00 0.00 0.00 0.00 0.00 0.00 0.00 0.00 0.00 0.00 0.00 0.00 0.00 0.00 0.00 0.00 0.01 0.00 0.01 0.02 0.02 0.00 0.01 0.02 0.02 0.01 0.01 0.02 0.03 0.02
0.01 0.01 0.01 0.01 0.00 0.01 0.00 0.00 0.00 0.00 0.01 0.01 0.02 0.03 0.04 0.02 0.00 0.00 0.00 0.00 0.00 0.00 0.00 0.00 0.00 0.00 0.00 0.00 0.01 0.00 0.00 0.00 0.00 0.00 0.01 0.01 0.02 0.02 0.01 0.01 0.01 0.00 0.00 0.00 0.01 0.01 0.01
0.01 0.02 0.01 0.01 0.01 0.00 0.00 0.00 0.00 0.00 0.00 0.02 0.07 0.07 0.04 0.04 0.01 0.00 0.00 0.00 0.00 0.00 0.00 0.00 0.00 0.00 0.00 0.02 0.02 0.01 0.00 0.00 0.01 0.00 0.00 0.02 0.02 0.04 0.01 0.03 0.00 0.00 0.00 0.00 0.00 0.01 0.00
0.02 0.01 0.01 0.01 0.01 0.01 0.00 0.00 0.00 0.00 0.00 0.02 0.07 0.06 0.02 0.05 0.02 0.00 0.00 0.00 0.00 0.00 0.00 0.01 0.00 0.00 0.01 0.03 0.02 0.01 0.01 0.00 0.00 0.00 0.01 0.03 0.05 0.07 0.05 0.09 0.00 0.00 0.00 0.00 0.00 0.00 0.00
0.01 0.02 0.01 0.01 0.01 0.01 0.00 0.00 0.00 0.00 0.00 0.01 0.08 0.07 0.03 0.05 0.03 0.00 0.00 0.00 0.00 0.00 0.01 0.00 0.00 0.01 0.02 0.02 0.02 0.01 0.02 0.01 0.00 0.00 0.00 0.00 0.01 0.02 0.04 0.05 0.00 0.00 0.00 0.00 0.00 0.00 0.00
0.02 0.02 0.02 0.01 0.01 0.01 0.01 0.00 0.01 0.00 0.00 0.01 0.09 0.08 0.03 0.03 0.04 0.00 0.00 0.00 0.00 0.01 0.01 0.00 0.02 0.00 0.00 0.01 0.02 0.05 0.03 0.01 0.00 0.00 0.00 0.00 0.00 0.00 0.00 0.00 0.00 0.00 0.00 0.00 0.00 0.00 0.00

GFSGBSN_prec_precacc12_045.txt.gz
Total_Precipitation_Accumulation
0.01 0.02 0.01 0.02 0.01 0.02 0.02 0.04 0.03 0.02 0.03 0.05 0.05 0.06 0.05 0.04 0.04 0.03 0.02 0.02 0.09 0.11 0.10 0.08 0.18 0.27 0.16 0.00 0.00 0.00 0.00 0.03 0.08 0.18 0.05 0.01 0.00 0.00 0.00 0.00 0.00 0.00 0.00 0.00 0.00 0.00 0.00
0.02 0.02 0.02 0.02 0.01 0.02 0.05 0.04 0.03 0.04 0.05 0.06 0.06 0.06 0.05 0.08 0.06 0.05 0.02 0.02 0.06 0.15 0.13 0.11 0.16 0.34 0.10 0.00 0.00 0.00 0.01 0.06 0.06 0.09 0.08 0.06 0.01 0.00 0.00 0.00 0.00 0.00 0.00 0.00 0.00 0.00 0.00
0.02 0.03 0.03 0.02 0.01 0.04 0.06 0.04 0.05 0.06 0.07 0.05 0.07 0.05 0.04 0.08 0.07 0.04 0.02 0.03 0.05 0.10 0.13 0.17 0.24 0.24 0.13 0.02 0.00 0.00 0.01 0.08 0.11 0.09 0.09 0.07 0.02 0.00 0.00 0.00 0.00 0.00 0.00 0.00 0.00 0.00 0.00
0.02 0.03 0.02 0.02 0.03 0.05 0.05 0.06 0.07 0.07 0.07 0.07 0.09 0.05 0.03 0.08 0.07 0.05 0.02 0.02 0.02 0.11 0.20 0.20 0.32 0.36 0.09 0.00 0.00 0.00 0.00 0.01 0.08 0.13 0.11 0.18 0.07 0.01 0.00 0.00 0.00 0.00 0.00 0.00 0.00 0.00 0.00
0.03 0.02 0.02 0.03 0.05 0.06 0.06 0.06 0.08 0.07 0.08 0.10 0.11 0.05 0.04 0.10 0.11 0.04 0.02 0.01 0.00 0.11 0.30 0.40 0.48 0.27 0.05 0.00 0.00 0.00 0.00 0.00 0.01 0.03 0.09 0.27 0.24 0.07 0.01 0.01 0.00 0.00 0.00 0.00 0.00 0.00 0.00
0.03 0.03 0.03 0.03 0.06 0.07 0.07 0.09 0.09 0.07 0.08 0.12 0.12 0.06 0.07 0.07 0.05 0.08 0.06 0.02 0.00 0.23 0.49 0.72 0.70 0.36 0.04 0.00 0.00 0.00 0.00 0.00 0.00 0.07 0.16 0.30 0.31 0.21 0.04 0.01 0.00 0.00 0.00 0.00 0.00 0.00 0.00
0.03 0.03 0.02 0.04 0.07 0.07 0.08 0.10 0.08 0.07 0.09 0.12 0.09 0.08 0.03 0.04 0.10 0.12 0.11 0.02 0.06 0.46 0.65 0.58 0.37 0.15 0.01 0.00 0.00 0.00 0.00 0.00 0.03 0.14 0.03 0.12 0.16 0.17 0.08 0.01 0.00 0.00 0.00 0.00 0.00 0.00 0.00
0.03 0.02 0.02 0.07 0.08 0.06 0.08 0.07 0.07 0.09 0.10 0.09 0.07 0.03 0.02 0.05 0.12 0.08 0.09 0.03 0.11 0.41 0.52 0.25 0.21 0.08 0.01 0.00 0.00 0.00 0.00 0.00 0.02 0.05 0.03 0.04 0.04 0.04 0.07 0.03 0.01 0.00 0.00 0.00 0.00 0.00 0.00
0.02 0.01 0.04 0.08 0.06 0.06 0.08 0.08 0.09 0.10 0.07 0.06 0.03 0.01 0.04 0.12 0.10 0.02 0.03 0.01 0.06 0.39 0.60 0.32 0.36 0.21 0.03 0.00 0.00 0.00 0.00 0.00 0.01 0.03 0.01 0.00 0.01 0.01 0.02 0.01 0.02 0.00 0.00 0.00 0.00 0.00 0.00
0.02 0.01 0.06 0.07 0.06 0.05 0.07 0.09 0.09 0.06 0.04 0.02 0.01 0.03 0.10 0.22 0.13 0.10 0.10 0.09 0.10 0.56 0.56 0.39 0.53 0.29 0.03 0.00 0.00 0.00 0.00 0.00 0.00 0.02 0.01 0.00 0.00 0.01 0.00 0.00 0.00 0.00 0.00 0.00 0.00 0.00 0.00
0.02 0.02 0.06 0.06 0.05 0.05 0.07 0.09 0.07 0.04 0.03 0.02 0.04 0.08 0.09 0.30 0.39 0.16 0.29 0.17 0.28 0.70 0.45 0.25 0.39 0.27 0.04 0.00 0.00 0.02 0.02 0.00 0.00 0.00 0.00 0.00 0.00 0.00 0.00 0.00 0.00 0.00 0.00 0.00 0.00 0.00 0.00
0.01 0.03 0.06 0.05 0.05 0.05 0.06 0.07 0.05 0.03 0.04 0.05 0.09 0.12 0.21 0.25 0.23 0.07 0.07 0.25 0.62 0.72 0.60 0.54 0.46 0.30 0.06 0.02 0.00 0.01 0.01 0.00 0.00 0.00 0.00 0.00 0.00 0.00 0.00 0.00 0.00 0.00 0.00 0.00 0.00 0.00 0.00
0.00 0.04 0.05 0.05 0.04 0.04 0.05 0.04 0.03 0.04 0.09 0.06 0.06 0.09 0.32 0.21 0.31 0.05 0.07 0.26 0.57 0.47 0.62 0.38 0.26 0.07 0.02 0.03 0.02 0.02 0.01 0.00 0.00 0.01 0.02 0.00 0.00 0.00 0.00 0.00 0.00 0.00 0.00 0.00 0.00 0.00 0.00
0.01 0.03 0.04 0.05 0.04 0.04 0.03 0.03 0.01 0.04 0.08 0.06 0.06 0.09 0.13 0.15 0.06 0.02 0.03 0.16 0.41 0.46 0.45 0.18 0.06 0.02 0.02 0.02 0.03 0.02 0.01 0.00 0.00 0.00 0.00 0.00 0.00 0.00 0.00 0.00 0.00 0.00 0.00 0.00 0.00 0.00 0.00
0.01 0.03 0.04 0.05 0.03 0.03 0.02 0.03 0.00 0.03 0.10 0.08 0.11 0.04 0.17 0.23 0.08 0.03 0.05 0.14 0.69 0.74 0.46 0.13 0.10 0.09 0.10 0.02 0.03 0.02 0.01 0.00 0.00 0.00 0.00 0.00 0.00 0.00 0.00 0.00 0.00 0.00 0.00 0.00 0.00 0.00 0.00
0.02 0.03 0.04 0.04 0.02 0.03 0.02 0.02 0.00 0.04 0.11 0.08 0.07 0.05 0.20 0.21 0.05 0.04 0.15 0.28 0.67 0.66 0.16 0.02 0.15 0.08 0.04 0.01 0.02 0.01 0.01 0.00 0.00 0.00 0.00 0.00 0.00 0.00 0.00 0.00 0.00 0.00 0.00 0.00 0.01 0.00 0.00
0.03 0.03 0.04 0.02 0.01 0.02 0.01 0.01 0.00 0.04 0.11 0.05 0.01 0.04 0.12 0.10 0.02 0.06 0.08 0.22 0.44 0.33 0.15 0.02 0.00 0.00 0.00 0.00 0.00 0.00 0.00 0.00 0.00 0.00 0.00 0.00 0.00 0.00 0.00 0.00 0.00 0.00 0.00 0.00 0.00 0.00 0.00
0.02 0.02 0.03 0.02 0.01 0.01 0.01 0.00 0.00 0.05 0.11 0.04 0.02 0.03 0.05 0.05 0.06 0.07 0.09 0.22 0.54 0.35 0.03 0.00 0.00 0.00 0.00 0.00 0.00 0.00 0.00 0.00 0.00 0.00 0.00 0.00 0.00 0.00 0.00 0.00 0.00 0.00 0.00 0.00 0.01 0.00 0.01
0.01 0.02 0.02 0.01 0.01 0.01 0.00 0.00 0.00 0.04 0.05 0.04 0.02 0.02 0.06 0.12 0.07 0.06 0.15 0.18 0.19 0.05 0.02 0.01 0.00 0.00 0.00 0.00 0.00 0.00 0.00 0.00 0.00 0.00 0.00 0.00 0.00 0.00 0.00 0.00 0.00 0.00 0.00 0.00 0.02 0.09 0.05
0.01 0.02 0.02 0.01 0.01 0.01 0.01 0.00 0.00 0.00 0.02 0.01 0.01 0.01 0.01 0.01 0.06 0.22 0.39 0.41 0.25 0.04 0.01 0.00 0.00 0.00 0.00 0.00 0.00 0.00 0.00 0.00 0.00 0.00 0.00 0.00 0.00 0.00 0.00 0.00 0.00 0.00 0.00 0.00 0.06 0.16 0.04
0.01 0.01 0.02 0.01 0.01 0.01 0.00 0.00 0.00 0.00 0.00 0.01 0.02 0.01 0.00 0.00 0.06 0.14 0.12 0.06 0.03 0.02 0.00 0.00 0.00 0.00 0.00 0.00 0.00 0.00 0.00 0.00 0.00 0.00 0.00 0.00 0.00 0.00 0.00 0.00 0.00 0.00 0.00 0.00 0.07 0.05 0.17
0.01 0.01 0.01 0.01 0.01 0.01 0.01 0.00 0.00 0.00 0.00 0.00 0.00 0.01 0.01 0.00 0.01 0.02 0.05 0.05 0.02 0.00 0.00 0.00 0.00 0.00 0.00 0.00 0.00 0.00 0.00 0.00 0.00 0.00 0.00 0.00 0.00 0.00 0.00 0.00 0.00 0.00 0.00 0.00 0.00 0.00 0.01
0.01 0.01 0.01 0.01 0.01 0.01 0.01 0.00 0.00 0.00 0.00 0.00 0.00 0.00 0.01 0.00 0.00 0.00 0.01 0.00 0.01 0.00 0.00 0.00 0.00 0.00 0.00 0.00 0.00 0.00 0.00 0.00 0.00 0.00 0.00 0.00 0.00 0.00 0.00 0.00 0.00 0.00 0.00 0.00 0.00 0.02 0.03
0.00 0.01 0.01 0.01 0.01 0.01 0.00 0.00 0.00 0.00 0.00 0.01 0.01 0.01 0.01 0.00 0.00 0.00 0.00 0.00 0.00 0.00 0.00 0.00 0.00 0.00 0.00 0.00 0.00 0.00 0.00 0.00 0.00 0.00 0.00 0.00 0.01 0.01 0.00 0.00 0.00 0.00 0.00 0.00 0.00 0.00 0.00
0.01 0.01 0.01 0.00 0.01 0.01 0.00 0.00 0.00 0.00 0.00 0.00 0.00 0.02 0.02 0.02 0.00 0.00 0.00 0.00 0.00 0.00 0.00 0.00 0.00 0.00 0.00 0.00 0.00 0.00 0.00 0.00 0.00 0.00 0.00 0.00 0.01 0.01 0.01 0.00 0.00 0.00 0.00 0.00 0.00 0.00 0.00
0.01 0.02 0.01 0.01 0.01 0.01 0.00 0.00 0.00 0.00 0.00 0.01 0.02 0.03 0.02 0.02 0.01 0.00 0.00 0.00 0.00 0.00 0.00 0.00 0.00 0.00 0.00 0.00 0.00 0.00 0.00 0.00 0.01 0.00 0.00 0.01 0.01 0.03 0.01 0.01 0.00 0.00 0.00 0.00 0.00 0.00 0.00
0.02 0.02 0.02 0.02 0.01 0.01 0.01 0.00 0.00 0.00 0.00 0.01 0.03 0.03 0.03 0.04 0.01 0.00 0.00 0.00 0.00 0.00 0.00 0.00 0.00 0.00 0.00 0.01 0.00 0.00 0.00 0.00 0.00 0.00 0.01 0.03 0.05 0.05 0.03 0.04 0.00 0.00 0.00 0.00 0.00 0.00 0.00
0.01 0.02 0.02 0.02 0.01 0.01 0.01 0.00 0.00 0.00 0.00 0.00 0.03 0.06 0.03 0.04 0.02 0.00 0.00 0.00 0.00 0.00 0.01 0.00 0.00 0.00 0.00 0.01 0.00 0.00 0.01 0.00 0.00 0.00 0.00 0.01 0.01 0.02 0.03 0.03 0.00 0.00 0.00 0.00 0.00 0.00 0.00
0.02 0.02 0.02 0.02 0.02 0.02 0.01 0.01 0.02 0.01 0.00 0.00 0.08 0.08 0.03 0.03 0.04 0.00 0.00 0.00 0.00 0.01 0.01 0.00 0.02 0.00 0.00 0.00 0.01 0.02 0.01 0.01 0.00 0.00 0.00 0.00 0.00 0.00 0.00 0.00 0.00 0.00 0.00 0.00 0.00 0.00 0.00

GFSGBSN_prec_precacc12_048.txt.gz
Total_Precipitation_Accumulation
0.01 0.02 0.03 0.02 0.02 0.02 0.03 0.05 0.04 0.04 0.04 0.06 0.06 0.07 0.05 0.04 0.06 0.06 0.06 0.04 0.03 0.03 0.08 0.08 0.18 0.28 0.40 0.18 0.01 0.01 0.00 0.03 0.08 0.12 0.04 0.02 0.00 0.00 0.00 0.00 0.00 0.00 0.00 0.00 0.00 0.00 0.00
0.02 0.02 0.03 0.02 0.02 0.03 0.06 0.06 0.05 0.05 0.05 0.07 0.07 0.07 0.06 0.09 0.09 0.08 0.06 0.06 0.05 0.03 0.08 0.12 0.16 0.36 0.32 0.07 0.01 0.00 0.01 0.06 0.06 0.07 0.03 0.05 0.01 0.00 0.00 0.00 0.00 0.00 0.00 0.00 0.00 0.00 0.00
0.02 0.03 0.03 0.02 0.02 0.05 0.06 0.05 0.06 0.06 0.07 0.07 0.08 0.06 0.06 0.09 0.10 0.06 0.04 0.10 0.09 0.02 0.07 0.17 0.25 0.28 0.26 0.07 0.00 0.00 0.02 0.13 0.13 0.10 0.04 0.05 0.02 0.00 0.00 0.00 0.00 0.00 0.00 0.00 0.00 0.00 0.00
0.02 0.03 0.03 0.02 0.03 0.05 0.05 0.06 0.07 0.07 0.07 0.08 0.10 0.07 0.04 0.09 0.08 0.06 0.05 0.05 0.04 0.01 0.05 0.17 0.33 0.43 0.15 0.01 0.02 0.00 0.00 0.10 0.20 0.29 0.18 0.17 0.07 0.01 0.00 0.00 0.00 0.00 0.00 0.00 0.00 0.00 0.00
0.03 0.03 0.03 0.02 0.04 0.06 0.07 0.06 0.07 0.06 0.07 0.10 0.12 0.06 0.05 0.11 0.11 0.04 0.04 0.01 0.01 0.03 0.05 0.32 0.49 0.37 0.12 0.00 0.03 0.00 0.00 0.06 0.10 0.17 0.22 0.34 0.29 0.08 0.00 0.00 0.00 0.00 0.00 0.00 0.00 0.00 0.00
0.03 0.03 0.02 0.02 0.07 0.08 0.06 0.06 0.06 0.06 0.07 0.12 0.12 0.05 0.07 0.07 0.04 0.07 0.06 0.01 0.00 0.00 0.06 0.58 0.70 0.46 0.10 0.00 0.02 0.00 0.00 0.01 0.03 0.15 0.29 0.32 0.38 0.24 0.04 0.01 0.00 0.00 0.00 0.00 0.00 0.00 0.00
0.02 0.02 0.01 0.05 0.08 0.07 0.06 0.07 0.07 0.07 0.09 0.10 0.09 0.08 0.03 0.02 0.06 0.09 0.09 0.01 0.02 0.05 0.15 0.44 0.36 0.18 0.02 0.00 0.03 0.01 0.00 0.01 0.06 0.19 0.34 0.34 0.21 0.20 0.08 0.01 0.00 0.00 0.00 0.00 0.00 0.00 0.00
0.02 0.02 0.02 0.06 0.07 0.06 0.07 0.06 0.07 0.08 0.07 0.07 0.04 0.02 0.01 0.04 0.09 0.10 0.07 0.01 0.01 0.05 0.16 0.20 0.21 0.09 0.03 0.01 0.05 0.01 0.00 0.00 0.04 0.08 0.19 0.39 0.08 0.13 0.09 0.03 0.01 0.00 0.00 0.00 0.00 0.00 0.00
0.02 0.01 0.03 0.06 0.06 0.06 0.06 0.06 0.07 0.06 0.06 0.06 0.04 0.02 0.03 0.07 0.08 0.02 0.03 0.00 0.00 0.07 0.21 0.23 0.37 0.23 0.07 0.03 0.05 0.00 0.00 0.00 0.02 0.06 0.04 0.07 0.03 0.04 0.10 0.05 0.04 0.01 0.00 0.00 0.00 0.00 0.00
0.01 0.01 0.04 0.05 0.05 0.05 0.04 0.06 0.06 0.05 0.07 0.06 0.05 0.05 0.08 0.11 0.09 0.08 0.12 0.11 0.01 0.14 0.24 0.24 0.49 0.35 0.11 0.02 0.08 0.00 0.00 0.01 0.02 0.07 0.03 0.00 0.00 0.04 0.08 0.05 0.02 0.03 0.00 0.00 0.00 0.00 0.00
0.01 0.01 0.04 0.05 0.05 0.04 0.05 0.06 0.05 0.06 0.08 0.06 0.05 0.10 0.15 0.24 0.29 0.20 0.23 0.11 0.05 0.23 0.21 0.17 0.39 0.43 0.15 0.01 0.05 0.02 0.03 0.00 0.00 0.01 0.03 0.01 0.00 0.01 0.08 0.02 0.00 0.00 0.00 0.00 0.00 0.00 0.00
0.00 0.01 0.04 0.04 0.04 0.03 0.05 0.05 0.05 0.06 0.10 0.06 0.09 0.11 0.19 0.23 0.29 0.13 0.04 0.10 0.13 0.32 0.36 0.47 0.48 0.61 0.13 0.02 0.01 0.02 0.03 0.00 0.00 0.01 0.01 0.00 0.00 0.00 0.00 0.00 0.00 0.00 0.00 0.00 0.00 0.00 0.00
0.00 0.02 0.03 0.04 0.03 0.02 0.04 0.03 0.03 0.05 0.11 0.06 0.06 0.09 0.30 0.17 0.31 0.05 0.02 0.06 0.13 0.26 0.55 0.45 0.46 0.26 0.03 0.03 0.03 0.04 0.02 0.00 0.01 0.01 0.03 0.00 0.00 0.00 0.00 0.00 0.00 0.00 0.00 0.00 0.00 0.00 0.00
0.00 0.02 0.03 0.03 0.02 0.02 0.03 0.02 0.01 0.04 0.09 0.06 0.04 0.09 0.06 0.11 0.03 0.01 0.00 0.02 0.17 0.37 0.55 0.33 0.27 0.08 0.06 0.04 0.05 0.05 0.01 0.00 0.00 0.00 0.00 0.00 0.00 0.00 0.00 0.00 0.00 0.00 0.00 0.00 0.00 0.00 0.00
0.00 0.02 0.03 0.03 0.01 0.02 0.02 0.01 0.00 0.04 0.10 0.08 0.06 0.02 0.12 0.12 0.03 0.02 0.03 0.09 0.46 0.73 0.66 0.36 0.15 0.13 0.12 0.02 0.04 0.06 0.01 0.00 0.00 0.00 0.00 0.00 0.00 0.00 0.00 0.00 0.00 0.00 0.00 0.00 0.00 0.00 0.00
0.01 0.02 0.02 0.03 0.01 0.02 0.01 0.01 0.00 0.04 0.10 0.06 0.02 0.04 0.14 0.10 0.03 0.04 0.15 0.30 0.54 0.68 0.24 0.05 0.18 0.10 0.04 0.02 0.02 0.02 0.01 0.00 0.00 0.00 0.00 0.00 0.00 0.00 0.00 0.00 0.00 0.00 0.00 0.00 0.00 0.00 0.00
0.01 0.01 0.02 0.02 0.01 0.02 0.01 0.00 0.00 0.03 0.09 0.01 0.00 0.02 0.05 0.04 0.00 0.03 0.08 0.28 0.47 0.33 0.17 0.02 0.00 0.00 0.00 0.00 0.00 0.00 0.00 0.00 0.00 0.00 0.00 0.00 0.00 0.00 0.00 0.00 0.00 0.00 0.00 0.00 0.00 0.00 0.00
0.01 0.01 0.02 0.01 0.00 0.01 0.00 0.00 0.00 0.02 0.06 0.01 0.00 0.00 0.01 0.01 0.01 0.01 0.07 0.20 0.47 0.28 0.03 0.00 0.00 0.00 0.00 0.00 0.00 0.00 0.00 0.00 0.00 0.00 0.00 0.00 0.00 0.00 0.00 0.00 0.00 0.00 0.00 0.00 0.00 0.00 0.00
0.01 0.01 0.01 0.01 0.00 0.01 0.00 0.00 0.00 0.00 0.02 0.01 0.00 0.00 0.01 0.05 0.03 0.02 0.04 0.11 0.15 0.04 0.02 0.01 0.00 0.00 0.00 0.00 0.00 0.00 0.00 0.00 0.00 0.00 0.00 0.00 0.00 0.00 0.00 0.00 0.00 0.00 0.00 0.00 0.00 0.02 0.01
0.01 0.01 0.01 0.01 0.00 0.01 0.00 0.00 0.00 0.00 0.00 0.00 0.00 0.00 0.00 0.01 0.03 0.17 0.27 0.37 0.24 0.04 0.01 0.00 0.00 0.00 0.00 0.00 0.00 0.00 0.00 0.00 0.00 0.00 0.00 0.00 0.00 0.00 0.00 0.00 0.00 0.00 0.00 0.00 0.00 0.05 0.01
0.00 0.00 0.01 0.01 0.00 0.00 0.00 0.00 0.00 0.00 0.00 0.00 0.00 0.00 0.00 0.00 0.03 0.08 0.06 0.03 0.02 0.01 0.00 0.00 0.00 0.00 0.00 0.00 0.00 0.00 0.00 0.00 0.00 0.00 0.00 0.00 0.00 0.00 0.00 0.00 0.00 0.00 0.00 0.00 0.01 0.01 0.07
0.00 0.01 0.01 0.01 0.00 0.00 0.00 0.00 0.00 0.00 0.00 0.00 0.00 0.00 0.00 0.00 0.00 0.01 0.02 0.03 0.01 0.00 0.00 0.00 0.00 0.00 0.00 0.00 0.00 0.00 0.00 0.00 0.00 0.00 0.00 0.00 0.00 0.00 0.00 0.00 0.00 0.00 0.00 0.00 0.00 0.00 0.00
0.00 0.01 0.01 0.01 0.01 0.01 0.00 0.00 0.00 0.00 0.00 0.00 0.00 0.00 0.00 0.00 0.00 0.00 0.00 0.00 0.00 0.00 0.00 0.00 0.00 0.00 0.00 0.00 0.00 0.00 0.00 0.00 0.00 0.00 0.00 0.00 0.00 0.00 0.00 0.00 0.00 0.00 0.00 0.00 0.00 0.00 0.01
0.00 0.01 0.01 0.01 0.01 0.01 0.00 0.00 0.00 0.00 0.00 0.00 0.01 0.01 0.01 0.00 0.00 0.00 0.00 0.00 0.00 0.00 0.00 0.00 0.00 0.00 0.00 0.00 0.00 0.00 0.00 0.00 0.00 0.00 0.00 0.00 0.00 0.00 0.00 0.00 0.00 0.00 0.00 0.00 0.00 0.00 0.00
0.01 0.01 0.01 0.01 0.01 0.01 0.00 0.00 0.00 0.00 0.00 0.00 0.00 0.02 0.02 0.00 0.00 0.00 0.00 0.00 0.00 0.00 0.00 0.00 0.00 0.00 0.00 0.00 0.00 0.00 0.00 0.00 0.00 0.00 0.00 0.00 0.00 0.00 0.00 0.00 0.00 0.00 0.00 0.00 0.00 0.00 0.00
0.01 0.02 0.01 0.02 0.01 0.01 0.00 0.00 0.00 0.00 0.00 0.01 0.01 0.03 0.03 0.02 0.00 0.00 0.00 0.00 0.00 0.00 0.00 0.00 0.00 0.00 0.00 0.00 0.00 0.00 0.00 0.00 0.00 0.00 0.00 0.00 0.00 0.02 0.00 0.01 0.00 0.00 0.00 0.00 0.00 0.00 0.00
0.02 0.01 0.02 0.02 0.01 0.01 0.01 0.00 0.00 0.00 0.00 0.00 0.02 0.02 0.04 0.03 0.01 0.00 0.00 0.00 0.00 0.00 0.00 0.00 0.00 0.00 0.00 0.00 0.00 0.00 0.00 0.00 0.00 0.00 0.01 0.03 0.04 0.04 0.01 0.02 0.00 0.00 0.00 0.00 0.00 0.00 0.00
0.01 0.02 0.02 0.02 0.02 0.02 0.01 0.01 0.00 0.00 0.00 0.00 0.03 0.09 0.12 0.07 0.01 0.00 0.00 0.00 0.00 0.00 0.00 0.00 0.00 0.00 0.00 0.00 0.00 0.00 0.00 0.00 0.00 0.00 0.00 0.01 0.01 0.02 0.02 0.02 0.00 0.00 0.00 0.00 0.00 0.00 0.00
0.02 0.02 0.02 0.02 0.02 0.03 0.01 0.01 0.02 0.04 0.01 0.00 0.06 0.10 0.11 0.09 0.04 0.00 0.00 0.00 0.00 0.00 0.00 0.00 0.00 0.00 0.00 0.00 0.00 0.00 0.00 0.00 0.00 0.00 0.00 0.00 0.00 0.00 0.00 0.00 0.00 0.00 0.00 0.00 0.00 0.00 0.00